<?xml version="1.0" encoding="UTF-8" standalone="no" ?><gpx xmlns="http://www.topografix.com/GPX/1/1" xmlns:gpxx="http://www.garmin.com/xmlschemas/GpxExtensions/v3" xmlns:wptx1="http://www.garmin.com/xmlschemas/WaypointExtension/v1" xmlns:gpxtpx="http://www.garmin.com/xmlschemas/TrackPointExtension/v1" creator="GuideVTT.com" version="1.1" xmlns:xsi="http://www.w3.org/2001/XMLSchema-instance" xsi:schemaLocation="http://www.topografix.com/GPX/1/1 http://www.topografix.com/GPX/1/1/gpx.xsd http://www.garmin.com/xmlschemas/GpxExtensions/v3 http://www8.garmin.com/xmlschemas/GpxExtensionsv3.xsd http://www.garmin.com/xmlschemas/WaypointExtension/v1 http://www8.garmin.com/xmlschemas/WaypointExtensionv1.xsd http://www.garmin.com/xmlschemas/TrackPointExtension/v1 http://www.garmin.com/xmlschemas/TrackPointExtensionv1.xsd">
<metadata><link href="http://www.garmin.com"><text>Garmin International</text></link><time>2013-06-22T15:13:50Z</time></metadata>
<trk><name>col_de_la_croix.gpx</name><extensions><gpxx:TrackExtension><gpxx:DisplayColor>Cyan</gpxx:DisplayColor></gpxx:TrackExtension></extensions><trkseg>
<trkpt lat="46.29566545" lon="7.05610399"><ele>1307.5780029744</ele><time>2008-10-01T18:44:00Z</time></trkpt>
<trkpt lat="46.29568855" lon="7.05589780"><ele>1303.5781250712</ele><time>2008-10-01T18:44:00Z</time></trkpt>
<trkpt lat="46.29614088" lon="7.05592895"><ele>1302.5770262352</ele><time>2008-10-01T18:44:00Z</time></trkpt>
<trkpt lat="46.29668619" lon="7.05530702"><ele>1302.5761718808</ele><time>2008-10-01T18:44:00Z</time></trkpt>
<trkpt lat="46.29711274" lon="7.05475459"><ele>1298.5756834632</ele><time>2008-10-01T18:44:00Z</time></trkpt>
<trkpt lat="46.29744501" lon="7.05447753"><ele>1294.5750731256</ele><time>2008-10-01T18:44:00Z</time></trkpt>
<trkpt lat="46.29799336" lon="7.05474835"><ele>1300.573486224</ele><time>2008-10-01T18:44:00Z</time></trkpt>
<trkpt lat="46.29835130" lon="7.05502053"><ele>1303.5723878208</ele><time>2008-10-01T18:44:00Z</time></trkpt>
<trkpt lat="46.29868615" lon="7.05549891"><ele>1307.57116692</ele><time>2008-10-01T18:44:00Z</time></trkpt>
<trkpt lat="46.29878286" lon="7.05594464"><ele>1312.5705565656</ele><time>2008-10-01T18:44:00Z</time></trkpt>
<trkpt lat="46.29854567" lon="7.05618668"><ele>1314.5710449192</ele><time>2008-10-01T18:44:00Z</time></trkpt>
<trkpt lat="46.29830848" lon="7.05642873"><ele>1317.57141108</ele><time>2008-10-01T18:44:00Z</time></trkpt>
<trkpt lat="46.29802369" lon="7.05667111"><ele>1320.5718994656</ele><time>2008-10-01T18:44:00Z</time></trkpt>
<trkpt lat="46.29795299" lon="7.05687764"><ele>1322.5718995296</ele><time>2008-10-01T18:44:00Z</time></trkpt>
<trkpt lat="46.29798038" lon="7.05794195"><ele>1329.5709228696</ele><time>2008-10-01T18:44:00Z</time></trkpt>
<trkpt lat="46.29835969" lon="7.05749288"><ele>1325.570312532</ele><time>2008-10-01T18:44:00Z</time></trkpt>
<trkpt lat="46.29888272" lon="7.05731750"><ele>1323.5692139688</ele><time>2008-10-01T18:44:00Z</time></trkpt>
<trkpt lat="46.29909611" lon="7.05707562"><ele>1322.568969792</ele><time>2008-10-01T18:44:00Z</time></trkpt>
<trkpt lat="46.29964202" lon="7.05662537"><ele>1321.5679931808</ele><time>2008-10-01T18:44:00Z</time></trkpt>
<trkpt lat="46.30018792" lon="7.05617510"><ele>1321.5670166016</ele><time>2008-10-01T18:44:00Z</time></trkpt>
<trkpt lat="46.30080569" lon="7.05586167"><ele>1321.5657958776</ele><time>2008-10-01T18:44:00Z</time></trkpt>
<trkpt lat="46.30204087" lon="7.05513179"><ele>1317.5633546064</ele><time>2008-10-01T18:44:00Z</time></trkpt>
<trkpt lat="46.30301669" lon="7.05512488"><ele>1314.5610352872</ele><time>2008-10-01T18:44:00Z</time></trkpt>
<trkpt lat="46.30334979" lon="7.05508818"><ele>1318.560302676</ele><time>2008-10-01T18:44:00Z</time></trkpt>
<trkpt lat="46.30339715" lon="7.05501916"><ele>1320.5601805152</ele><time>2008-10-01T18:44:00Z</time></trkpt>
<trkpt lat="46.32208752" lon="7.06398041"><ele>1998.5075684328</ele><time>2008-10-01T18:44:00Z</time></trkpt>
<trkpt lat="46.32169176" lon="7.06449845"><ele>1994.5080565944</ele><time>2008-10-01T18:44:00Z</time></trkpt>
<trkpt lat="46.32141831" lon="7.06530077"><ele>1975.508056596</ele><time>2008-10-01T18:44:00Z</time></trkpt>
<trkpt lat="46.32133872" lon="7.06570325"><ele>1971.507934548</ele><time>2008-10-01T18:44:00Z</time></trkpt>
<trkpt lat="46.32146036" lon="7.06650285"><ele>1965.5069580816</ele><time>2008-10-01T18:44:00Z</time></trkpt>
<trkpt lat="46.32197797" lon="7.06684283"><ele>1954.5054931656</ele><time>2008-10-01T18:44:00Z</time></trkpt>
<trkpt lat="46.32217551" lon="7.06684148"><ele>1950.505004748</ele><time>2008-10-01T18:44:00Z</time></trkpt>
<trkpt lat="46.32217796" lon="7.06758694"><ele>1934.504394636</ele><time>2008-10-01T18:44:00Z</time></trkpt>
<trkpt lat="46.32217890" lon="7.06787207"><ele>1930.5041503632</ele><time>2008-10-01T18:44:00Z</time></trkpt>
<trkpt lat="46.32178531" lon="7.06833166"><ele>1928.5047608136</ele><time>2008-10-01T18:44:00Z</time></trkpt>
<trkpt lat="46.32182471" lon="7.06873333"><ele>1920.5042725728</ele><time>2008-10-01T18:44:00Z</time></trkpt>
<trkpt lat="46.32206308" lon="7.06884507"><ele>1915.5036622032</ele><time>2008-10-01T18:44:00Z</time></trkpt>
<trkpt lat="46.32215482" lon="7.06996782"><ele>1898.5024415448</ele><time>2008-10-01T18:44:00Z</time></trkpt>
<trkpt lat="46.32206643" lon="7.07206400"><ele>1862.5009764384</ele><time>2008-10-01T18:44:00Z</time></trkpt>
<trkpt lat="46.32211804" lon="7.07330039"><ele>1860.4998778752</ele><time>2008-10-01T18:44:00Z</time></trkpt>
<trkpt lat="46.32211971" lon="7.07381569"><ele>1858.4993895216</ele><time>2008-10-01T18:44:00Z</time></trkpt>
<trkpt lat="46.32238229" lon="7.07405440"><ele>1858.4985351672</ele><time>2008-10-01T18:44:00Z</time></trkpt>
<trkpt lat="46.32221569" lon="7.07405552"><ele>1858.4990234568</ele><time>2008-10-01T18:44:00Z</time></trkpt>
<trkpt lat="46.32183432" lon="7.07388631"><ele>1851.5000001168</ele><time>2008-10-01T18:44:00Z</time></trkpt>
<trkpt lat="46.32150056" lon="7.07371679"><ele>1843.50097644</ele><time>2008-10-01T18:44:00Z</time></trkpt>
<trkpt lat="46.32069033" lon="7.07341307"><ele>1835.503173792</ele><time>2008-10-01T18:44:00Z</time></trkpt>
<trkpt lat="46.32045221" lon="7.07338032"><ele>1833.5037842424</ele><time>2008-10-01T18:44:00Z</time></trkpt>
<trkpt lat="46.32011912" lon="7.07341692"><ele>1830.5046388056</ele><time>2008-10-01T18:44:00Z</time></trkpt>
<trkpt lat="46.31990569" lon="7.07365883"><ele>1828.5048828864</ele><time>2008-10-01T18:44:00Z</time></trkpt>
<trkpt lat="46.31971595" lon="7.07386622"><ele>1825.50524916</ele><time>2008-10-01T18:44:00Z</time></trkpt>
<trkpt lat="46.31955156" lon="7.07455437"><ele>1826.5050047424</ele><time>2008-10-01T18:44:00Z</time></trkpt>
<trkpt lat="46.31907632" lon="7.07479803"><ele>1822.5059814984</ele><time>2008-10-01T18:44:00Z</time></trkpt>
<trkpt lat="46.31836396" lon="7.07531808"><ele>1802.507324112</ele><time>2008-10-01T18:44:00Z</time></trkpt>
<trkpt lat="46.31796222" lon="7.07621391"><ele>1804.5075683208</ele><time>2008-10-01T18:44:00Z</time></trkpt>
<trkpt lat="46.31777512" lon="7.07724570"><ele>1807.5070801272</ele><time>2008-10-01T18:44:00Z</time></trkpt>
<trkpt lat="46.31758702" lon="7.07796832"><ele>1806.5069578704</ele><time>2008-10-01T18:44:00Z</time></trkpt>
<trkpt lat="46.31747142" lon="7.07903397"><ele>1810.5063477888</ele><time>2008-10-01T18:44:00Z</time></trkpt>
<trkpt lat="46.31759447" lon="7.08030414"><ele>1811.505004872</ele><time>2008-10-01T18:44:00Z</time></trkpt>
<trkpt lat="46.31771619" lon="7.08116212"><ele>1818.504028212</ele><time>2008-10-01T18:44:00Z</time></trkpt>
<trkpt lat="46.31748090" lon="7.08202244"><ele>1820.503906356</ele><time>2008-10-01T18:44:00Z</time></trkpt>
<trkpt lat="46.31743569" lon="7.08277846"><ele>1820.5034180664</ele><time>2008-10-01T18:44:00Z</time></trkpt>
<trkpt lat="46.31736775" lon="7.08387813"><ele>1818.502685568</ele><time>2008-10-01T18:44:00Z</time></trkpt>
<trkpt lat="46.31734750" lon="7.08501184"><ele>1820.5018309728</ele><time>2008-10-01T18:44:00Z</time></trkpt>
<trkpt lat="46.31715871" lon="7.08552834"><ele>1823.5018310688</ele><time>2008-10-01T18:44:00Z</time></trkpt>
<trkpt lat="46.31706577" lon="7.08625031"><ele>1831.5014649552</ele><time>2008-10-01T18:44:00Z</time></trkpt>
<trkpt lat="46.31711540" lon="7.08690265"><ele>1827.5007323928</ele><time>2008-10-01T18:44:00Z</time></trkpt>
<trkpt lat="46.31697527" lon="7.08776232"><ele>1829.5003660872</ele><time>2008-10-01T18:44:00Z</time></trkpt>
<trkpt lat="46.31719108" lon="7.08827619"><ele>1840.49951178</ele><time>2008-10-01T18:44:00Z</time></trkpt>
<trkpt lat="46.31726408" lon="7.08879098"><ele>1835.4989014104</ele><time>2008-10-01T18:44:00Z</time></trkpt>
<trkpt lat="46.31734079" lon="7.09050802"><ele>1830.4973144616</ele><time>2008-10-01T18:44:00Z</time></trkpt>
<trkpt lat="46.31755691" lon="7.09112495"><ele>1837.4962158816</ele><time>2008-10-01T18:44:00Z</time></trkpt>
<trkpt lat="46.31789128" lon="7.09150067"><ele>1840.4951171736</ele><time>2008-10-01T18:44:00Z</time></trkpt>
<trkpt lat="46.31853591" lon="7.09214922"><ele>1843.4930418864</ele><time>2008-10-01T18:44:00Z</time></trkpt>
<trkpt lat="46.31884532" lon="7.09214724"><ele>1851.492309708</ele><time>2008-10-01T18:44:00Z</time></trkpt>
<trkpt lat="46.31908701" lon="7.09334801"><ele>1840.4907225672</ele><time>2008-10-01T18:44:00Z</time></trkpt>
<trkpt lat="46.31920999" lon="7.09465260"><ele>1829.489379876</ele><time>2008-10-01T18:44:00Z</time></trkpt>
<trkpt lat="46.31921177" lon="7.09523658"><ele>1826.4888914904</ele><time>2008-10-01T18:44:00Z</time></trkpt>
<trkpt lat="46.31947463" lon="7.09557843"><ele>1832.4879151032</ele><time>2008-10-01T18:44:00Z</time></trkpt>
<trkpt lat="46.31959509" lon="7.09605860"><ele>1831.4871826368</ele><time>2008-10-01T18:44:00Z</time></trkpt>
<trkpt lat="46.31966878" lon="7.09681389"><ele>1824.4864502832</ele><time>2008-10-01T18:44:00Z</time></trkpt>
<trkpt lat="46.31990845" lon="7.09736201"><ele>1827.4853515752</ele><time>2008-10-01T18:44:00Z</time></trkpt>
<trkpt lat="46.31991011" lon="7.09791164"><ele>1822.4849853504</ele><time>2008-10-01T18:44:00Z</time></trkpt>
<trkpt lat="46.32003171" lon="7.09876969"><ele>1824.4838866104</ele><time>2008-10-01T18:44:00Z</time></trkpt>
<trkpt lat="46.32003357" lon="7.09938802"><ele>1819.4833984656</ele><time>2008-10-01T18:44:00Z</time></trkpt>
<trkpt lat="46.32017740" lon="7.09973065"><ele>1822.4827880472</ele><time>2008-10-01T18:44:00Z</time></trkpt>
<trkpt lat="46.32044127" lon="7.10041605"><ele>1832.4815673384</ele><time>2008-10-01T18:44:00Z</time></trkpt>
<trkpt lat="46.32046631" lon="7.10082813"><ele>1836.4812010968</ele><time>2008-10-01T18:44:00Z</time></trkpt>
<trkpt lat="46.32030053" lon="7.10110399"><ele>1833.4813232256</ele><time>2008-10-01T18:44:00Z</time></trkpt>
<trkpt lat="46.32027847" lon="7.10168812"><ele>1838.480957016</ele><time>2008-10-01T18:44:00Z</time></trkpt>
<trkpt lat="46.32016131" lon="7.10230720"><ele>1840.4807129352</ele><time>2008-10-01T18:44:00Z</time></trkpt>
<trkpt lat="46.32009349" lon="7.10350996"><ele>1843.479858372</ele><time>2008-10-01T18:44:00Z</time></trkpt>
<trkpt lat="46.32030872" lon="7.10385215"><ele>1852.4791259208</ele><time>2008-10-01T18:44:00Z</time></trkpt>
<trkpt lat="46.32076144" lon="7.10402112"><ele>1856.4777831</ele><time>2008-10-01T18:44:00Z</time></trkpt>
<trkpt lat="46.32126227" lon="7.10436156"><ele>1855.476318504</ele><time>2008-10-01T18:44:00Z</time></trkpt>
<trkpt lat="46.32161908" lon="7.10429065"><ele>1858.4755858608</ele><time>2008-10-01T18:44:00Z</time></trkpt>
<trkpt lat="46.32195239" lon="7.10432295"><ele>1861.4747312976</ele><time>2008-10-01T18:44:00Z</time></trkpt>
<trkpt lat="46.32228642" lon="7.10459572"><ele>1859.4736327344</ele><time>2008-10-01T18:44:00Z</time></trkpt>
<trkpt lat="46.32271584" lon="7.10493661"><ele>1858.4722900584</ele><time>2008-10-01T18:44:00Z</time></trkpt>
<trkpt lat="46.32312127" lon="7.10520895"><ele>1856.4710692704</ele><time>2008-10-01T18:44:00Z</time></trkpt>
<trkpt lat="46.32340749" lon="7.10541331"><ele>1855.470214884</ele><time>2008-10-01T18:44:00Z</time></trkpt>
<trkpt lat="46.32359850" lon="7.10561827"><ele>1853.4696046104</ele><time>2008-10-01T18:44:00Z</time></trkpt>
<trkpt lat="46.32345661" lon="7.10592833"><ele>1849.4697267072</ele><time>2008-10-01T18:44:00Z</time></trkpt>
<trkpt lat="46.32338571" lon="7.10610054"><ele>1847.4697266432</ele><time>2008-10-01T18:44:00Z</time></trkpt>
<trkpt lat="46.32341002" lon="7.10627216"><ele>1848.4696044504</ele><time>2008-10-01T18:44:00Z</time></trkpt>
<trkpt lat="46.32326843" lon="7.10668529"><ele>1847.4696044184</ele><time>2008-10-01T18:44:00Z</time></trkpt>
<trkpt lat="46.32310313" lon="7.10713291"><ele>1845.4696043544</ele><time>2008-10-01T18:44:00Z</time></trkpt>
<trkpt lat="46.32288893" lon="7.10713422"><ele>1840.4700927888</ele><time>2008-10-01T18:44:00Z</time></trkpt>
<trkpt lat="46.32291414" lon="7.10761502"><ele>1841.4696045312</ele><time>2008-10-01T18:44:00Z</time></trkpt>
<trkpt lat="46.32305735" lon="7.10775157"><ele>1844.4692382576</ele><time>2008-10-01T18:44:00Z</time></trkpt>
<trkpt lat="46.32289235" lon="7.10830224"><ele>1842.4691162736</ele><time>2008-10-01T18:44:00Z</time></trkpt>
<trkpt lat="46.32301226" lon="7.10861070"><ele>1846.4686278072</ele><time>2008-10-01T18:44:00Z</time></trkpt>
<trkpt lat="46.32308427" lon="7.10881639"><ele>1849.4682618384</ele><time>2008-10-01T18:44:00Z</time></trkpt>
<trkpt lat="46.32332177" lon="7.10864317"><ele>1853.467773372</ele><time>2008-10-01T18:44:00Z</time></trkpt>
<trkpt lat="46.32348918" lon="7.10891699"><ele>1857.4671629856</ele><time>2008-10-01T18:44:00Z</time></trkpt>
<trkpt lat="46.32353809" lon="7.10936330"><ele>1862.466674856</ele><time>2008-10-01T18:44:00Z</time></trkpt>
<trkpt lat="46.32342049" lon="7.10984498"><ele>1863.4665526632</ele><time>2008-10-01T18:44:00Z</time></trkpt>
<trkpt lat="46.32316078" lon="7.11056800"><ele>1863.4665526632</ele><time>2008-10-01T18:44:00Z</time></trkpt>
<trkpt lat="46.32311497" lon="7.11118666"><ele>1867.4661864216</ele><time>2008-10-01T18:44:00Z</time></trkpt>
<trkpt lat="46.32292596" lon="7.11166877"><ele>1868.4663086784</ele><time>2008-10-01T18:44:00Z</time></trkpt>
<trkpt lat="46.32278485" lon="7.11225364"><ele>1874.4661866456</ele><time>2008-10-01T18:44:00Z</time></trkpt>
<trkpt lat="46.32304835" lon="7.11283608"><ele>1879.4649657768</ele><time>2008-10-01T18:44:00Z</time></trkpt>
<trkpt lat="46.32350126" lon="7.11307384"><ele>1883.4637451808</ele><time>2008-10-01T18:44:00Z</time></trkpt>
<trkpt lat="46.32385827" lon="7.11307169"><ele>1889.4628907136</ele><time>2008-10-01T18:44:00Z</time></trkpt>
<trkpt lat="46.32433676" lon="7.11392770"><ele>1884.4609373952</ele><time>2008-10-01T18:44:00Z</time></trkpt>
<trkpt lat="46.32479025" lon="7.11437160"><ele>1887.4594726224</ele><time>2008-10-01T18:44:00Z</time></trkpt>
<trkpt lat="46.32517323" lon="7.11512513"><ele>1879.4580078024</ele><time>2008-10-01T18:44:00Z</time></trkpt>
<trkpt lat="46.32550920" lon="7.11608509"><ele>1882.4562988848</ele><time>2008-10-01T18:44:00Z</time></trkpt>
<trkpt lat="46.32567874" lon="7.11711476"><ele>1879.4550780648</ele><time>2008-10-01T18:44:00Z</time></trkpt>
<trkpt lat="46.32565827" lon="7.11828299"><ele>1877.4542236464</ele><time>2008-10-01T18:44:00Z</time></trkpt>
<trkpt lat="46.32554277" lon="7.11952049"><ele>1877.453369292</ele><time>2008-10-01T18:44:00Z</time></trkpt>
<trkpt lat="46.32523646" lon="7.12062168"><ele>1876.4532470352</ele><time>2008-10-01T18:44:00Z</time></trkpt>
<trkpt lat="46.32476383" lon="7.12182689"><ele>1855.4533691976</ele><time>2008-10-01T18:44:00Z</time></trkpt>
<trkpt lat="46.32436114" lon="7.12251635"><ele>1845.453857472</ele><time>2008-10-01T18:44:00Z</time></trkpt>
<trkpt lat="46.32422025" lon="7.12320427"><ele>1832.453613216</ele><time>2008-10-01T18:44:00Z</time></trkpt>
<trkpt lat="46.32431757" lon="7.12395952"><ele>1837.4527587168</ele><time>2008-10-01T18:44:00Z</time></trkpt>
<trkpt lat="46.32417534" lon="7.12416648"><ele>1836.4528809096</ele><time>2008-10-01T18:44:00Z</time></trkpt>
<trkpt lat="46.32405691" lon="7.12437329"><ele>1834.4530030704</ele><time>2008-10-01T18:44:00Z</time></trkpt>
<trkpt lat="46.32424827" lon="7.12471574"><ele>1840.4522705232</ele><time>2008-10-01T18:44:00Z</time></trkpt>
<trkpt lat="46.32420239" lon="7.12533439"><ele>1831.4519041704</ele><time>2008-10-01T18:44:00Z</time></trkpt>
<trkpt lat="46.32453636" lon="7.12560730"><ele>1840.4508056544</ele><time>2008-10-01T18:44:00Z</time></trkpt>
<trkpt lat="46.32470373" lon="7.12588118"><ele>1840.4501954448</ele><time>2008-10-01T18:44:00Z</time></trkpt>
<trkpt lat="46.32480008" lon="7.12629289"><ele>1840.4495849304</ele><time>2008-10-01T18:44:00Z</time></trkpt>
<trkpt lat="46.32472896" lon="7.12639637"><ele>1837.4497070592</ele><time>2008-10-01T18:44:00Z</time></trkpt>
<trkpt lat="46.32451513" lon="7.12653502"><ele>1830.4500732048</ele><time>2008-10-01T18:44:00Z</time></trkpt>
<trkpt lat="46.32489689" lon="7.12687637"><ele>1829.4488524488</ele><time>2008-10-01T18:44:00Z</time></trkpt>
<trkpt lat="46.32534910" lon="7.12687377"><ele>1828.4477539176</ele><time>2008-10-01T18:44:00Z</time></trkpt>
<trkpt lat="46.32580027" lon="7.12649325"><ele>1824.4470213552</ele><time>2008-10-01T18:44:00Z</time></trkpt>
<trkpt lat="46.32598887" lon="7.12583940"><ele>1825.447143612</ele><time>2008-10-01T18:44:00Z</time></trkpt>
<trkpt lat="46.32717413" lon="7.12411470"><ele>1812.445678632</ele><time>2008-10-01T18:44:00Z</time></trkpt>
<trkpt lat="46.32829353" lon="7.12438306"><ele>1801.442749152</ele><time>2008-10-01T18:44:00Z</time></trkpt>
<trkpt lat="46.32888998" lon="7.12489497"><ele>1788.4407958824</ele><time>2008-10-01T18:44:00Z</time></trkpt>
<trkpt lat="46.32960571" lon="7.12550927"><ele>1784.438598756</ele><time>2008-10-01T18:44:00Z</time></trkpt>
<trkpt lat="46.32994159" lon="7.12646937"><ele>1774.4370116472</ele><time>2008-10-01T18:44:00Z</time></trkpt>
<trkpt lat="46.33013361" lon="7.12705237"><ele>1772.436035004</ele><time>2008-10-01T18:44:00Z</time></trkpt>
<trkpt lat="46.33065827" lon="7.12742730"><ele>1773.4344482472</ele><time>2008-10-01T18:44:00Z</time></trkpt>
<trkpt lat="46.33108810" lon="7.12794022"><ele>1769.4329832504</ele><time>2008-10-01T18:44:00Z</time></trkpt>
<trkpt lat="46.33135368" lon="7.12931308"><ele>1756.4312744304</ele><time>2008-10-01T18:44:00Z</time></trkpt>
<trkpt lat="46.33152638" lon="7.13154547"><ele>1742.428955064</ele><time>2008-10-01T18:44:00Z</time></trkpt>
<trkpt lat="46.33119634" lon="7.13271557"><ele>1731.4288330968</ele><time>2008-10-01T18:44:00Z</time></trkpt>
<trkpt lat="46.33116003" lon="7.13690763"><ele>1712.4254150712</ele><time>2008-10-01T18:44:00Z</time></trkpt>
<trkpt lat="46.33099388" lon="7.13708035"><ele>1708.425659088</ele><time>2008-10-01T18:44:00Z</time></trkpt>
<trkpt lat="46.33106657" lon="7.13756098"><ele>1710.4250489424</ele><time>2008-10-01T18:44:00Z</time></trkpt>
<trkpt lat="46.33140088" lon="7.13797143"><ele>1715.4239502984</ele><time>2008-10-01T18:44:00Z</time></trkpt>
<trkpt lat="46.33185520" lon="7.13875919"><ele>1714.422119028</ele><time>2008-10-01T18:44:00Z</time></trkpt>
<trkpt lat="46.33257168" lon="7.13968295"><ele>1720.419677772</ele><time>2008-10-01T18:44:00Z</time></trkpt>
<trkpt lat="46.33312110" lon="7.14043585"><ele>1721.4177246456</ele><time>2008-10-01T18:44:00Z</time></trkpt>
<trkpt lat="46.33362082" lon="7.14039874"><ele>1728.4165038408</ele><time>2008-10-01T18:44:00Z</time></trkpt>
<trkpt lat="46.33421648" lon="7.14063599"><ele>1730.414917116</ele><time>2008-10-01T18:44:00Z</time></trkpt>
<trkpt lat="46.33476498" lon="7.14104531"><ele>1721.4132081192</ele><time>2008-10-01T18:44:00Z</time></trkpt>
<trkpt lat="46.33564470" lon="7.14069685"><ele>1726.4113770408</ele><time>2008-10-01T18:44:00Z</time></trkpt>
<trkpt lat="46.33597891" lon="7.14107300"><ele>1724.4102781728</ele><time>2008-10-01T18:44:00Z</time></trkpt>
<trkpt lat="46.33626669" lon="7.14189612"><ele>1718.4088134168</ele><time>2008-10-01T18:44:00Z</time></trkpt>
<trkpt lat="46.33669619" lon="7.14230612"><ele>1714.4074706448</ele><time>2008-10-01T18:44:00Z</time></trkpt>
<trkpt lat="46.33705419" lon="7.14268216"><ele>1715.4062499528</ele><time>2008-10-01T18:44:00Z</time></trkpt>
<trkpt lat="46.33748287" lon="7.14278290"><ele>1717.4051515176</ele><time>2008-10-01T18:44:00Z</time></trkpt>
<trkpt lat="46.33779192" lon="7.14264376"><ele>1717.4045410032</ele><time>2008-10-01T18:44:00Z</time></trkpt>
<trkpt lat="46.33802903" lon="7.14229883"><ele>1715.4041748744</ele><time>2008-10-01T18:44:00Z</time></trkpt>
<trkpt lat="46.33802686" lon="7.14147411"><ele>1715.4049073088</ele><time>2008-10-01T18:44:00Z</time></trkpt>
<trkpt lat="46.33802577" lon="7.14106175"><ele>1714.4052733416</ele><time>2008-10-01T18:44:00Z</time></trkpt>
<trkpt lat="46.33797663" lon="7.14047783"><ele>1710.405883728</ele><time>2008-10-01T18:44:00Z</time></trkpt>
<trkpt lat="46.33806947" lon="7.13958386"><ele>1709.4063719856</ele><time>2008-10-01T18:44:00Z</time></trkpt>
<trkpt lat="46.33813914" lon="7.13893056"><ele>1703.4067381632</ele><time>2008-10-01T18:44:00Z</time></trkpt>
<trkpt lat="46.33756572" lon="7.13810901"><ele>1699.4088134184</ele><time>2008-10-01T18:44:00Z</time></trkpt>
<trkpt lat="46.33739848" lon="7.13786939"><ele>1703.409423756</ele><time>2008-10-01T18:44:00Z</time></trkpt>
<trkpt lat="46.33727828" lon="7.13742334"><ele>1695.4101562392</ele><time>2008-10-01T18:44:00Z</time></trkpt>
<trkpt lat="46.33682506" lon="7.13704786"><ele>1695.4114988832</ele><time>2008-10-01T18:44:00Z</time></trkpt>
<trkpt lat="46.33646722" lon="7.13674059"><ele>1694.4125976552</ele><time>2008-10-01T18:44:00Z</time></trkpt>
<trkpt lat="46.33613272" lon="7.13626138"><ele>1689.4138182192</ele><time>2008-10-01T18:44:00Z</time></trkpt>
<trkpt lat="46.33558300" lon="7.13540539"><ele>1684.4158934424</ele><time>2008-10-01T18:44:00Z</time></trkpt>
<trkpt lat="46.33519978" lon="7.13451413"><ele>1685.417602488</ele><time>2008-10-01T18:44:00Z</time></trkpt>
<trkpt lat="46.33519681" lon="7.13341456"><ele>1683.4184570832</ele><time>2008-10-01T18:44:00Z</time></trkpt>
<trkpt lat="46.33538433" lon="7.13234827"><ele>1678.4189452128</ele><time>2008-10-01T18:44:00Z</time></trkpt>
<trkpt lat="46.33561888" lon="7.13107554"><ele>1677.4194334704</ele><time>2008-10-01T18:44:00Z</time></trkpt>
<trkpt lat="46.33575990" lon="7.13042185"><ele>1681.4195555184</ele><time>2008-10-01T18:44:00Z</time></trkpt>
<trkpt lat="46.33613996" lon="7.13014479"><ele>1677.4189451808</ele><time>2008-10-01T18:44:00Z</time></trkpt>
<trkpt lat="46.33637694" lon="7.12976545"><ele>1675.4187012768</ele><time>2008-10-01T18:44:00Z</time></trkpt>
<trkpt lat="46.33637618" lon="7.12949055"><ele>1673.4188231328</ele><time>2008-10-01T18:44:00Z</time></trkpt>
<trkpt lat="46.33639904" lon="7.12914679"><ele>1676.4190673736</ele><time>2008-10-01T18:44:00Z</time></trkpt>
<trkpt lat="46.33694608" lon="7.12900621"><ele>1680.4178467776</ele><time>2008-10-01T18:44:00Z</time></trkpt>
<trkpt lat="46.33739867" lon="7.12914107"><ele>1682.4166261176</ele><time>2008-10-01T18:44:00Z</time></trkpt>
<trkpt lat="46.33806415" lon="7.12879363"><ele>1681.4154053616</ele><time>2008-10-01T18:44:00Z</time></trkpt>
<trkpt lat="46.33868241" lon="7.12858391"><ele>1693.414062492</ele><time>2008-10-01T18:44:00Z</time></trkpt>
<trkpt lat="46.33932512" lon="7.12861459"><ele>1688.4124755432</ele><time>2008-10-01T18:44:00Z</time></trkpt>
<trkpt lat="46.33989681" lon="7.12878314"><ele>1695.4108886736</ele><time>2008-10-01T18:44:00Z</time></trkpt>
<trkpt lat="46.34063416" lon="7.12860710"><ele>1699.409301708</ele><time>2008-10-01T18:44:00Z</time></trkpt>
<trkpt lat="46.34127498" lon="7.12795047"><ele>1695.4082030808</ele><time>2008-10-01T18:44:00Z</time></trkpt>
<trkpt lat="46.34162982" lon="7.12715802"><ele>1696.4080811928</ele><time>2008-10-01T18:44:00Z</time></trkpt>
<trkpt lat="46.34179329" lon="7.12602299"><ele>1698.4085692416</ele><time>2008-10-01T18:44:00Z</time></trkpt>
<trkpt lat="46.34181508" lon="7.12530117"><ele>1696.409179692</ele><time>2008-10-01T18:44:00Z</time></trkpt>
<trkpt lat="46.34155194" lon="7.12482157"><ele>1697.4101563032</ele><time>2008-10-01T18:44:00Z</time></trkpt>
<trkpt lat="46.34131260" lon="7.12434184"><ele>1702.4111327376</ele><time>2008-10-01T18:44:00Z</time></trkpt>
<trkpt lat="46.34157297" lon="7.12382483"><ele>1706.4108887208</ele><time>2008-10-01T18:44:00Z</time></trkpt>
<trkpt lat="46.34188027" lon="7.12306699"><ele>1709.410766592</ele><time>2008-10-01T18:44:00Z</time></trkpt>
<trkpt lat="46.34228315" lon="7.12244604"><ele>1710.4104002544</ele><time>2008-10-01T18:44:00Z</time></trkpt>
<trkpt lat="46.34266271" lon="7.12199706"><ele>1708.4097899808</ele><time>2008-10-01T18:44:00Z</time></trkpt>
<trkpt lat="46.34254235" lon="7.12151663"><ele>1710.4105224792</ele><time>2008-10-01T18:44:00Z</time></trkpt>
<trkpt lat="46.34254071" lon="7.12093240"><ele>1705.4110106088</ele><time>2008-10-01T18:44:00Z</time></trkpt>
<trkpt lat="46.34275365" lon="7.12048438"><ele>1700.4108885288</ele><time>2008-10-01T18:44:00Z</time></trkpt>
<trkpt lat="46.34280038" lon="7.12017480"><ele>1694.4110108664</ele><time>2008-10-01T18:44:00Z</time></trkpt>
<trkpt lat="46.34253819" lon="7.12003888"><ele>1696.41174306</ele><time>2008-10-01T18:44:00Z</time></trkpt>
<trkpt lat="46.34251235" lon="7.11931733"><ele>1690.4123533824</ele><time>2008-10-01T18:44:00Z</time></trkpt>
<trkpt lat="46.34255732" lon="7.11838916"><ele>1687.4130860256</ele><time>2008-10-01T18:44:00Z</time></trkpt>
<trkpt lat="46.34286624" lon="7.11821550"><ele>1690.4124756072</ele><time>2008-10-01T18:44:00Z</time></trkpt>
<trkpt lat="46.34331719" lon="7.11776606"><ele>1696.41174306</ele><time>2008-10-01T18:44:00Z</time></trkpt>
<trkpt lat="46.34338732" lon="7.11731887"><ele>1697.4118653168</ele><time>2008-10-01T18:44:00Z</time></trkpt>
<trkpt lat="46.34348183" lon="7.11707774"><ele>1696.4118652848</ele><time>2008-10-01T18:44:00Z</time></trkpt>
<trkpt lat="46.34378938" lon="7.11642293"><ele>1687.4116211568</ele><time>2008-10-01T18:44:00Z</time></trkpt>
<trkpt lat="46.34378840" lon="7.11607926"><ele>1690.4119873176</ele><time>2008-10-01T18:44:00Z</time></trkpt>
<trkpt lat="46.34409525" lon="7.11518387"><ele>1681.4119873344</ele><time>2008-10-01T18:44:00Z</time></trkpt>
<trkpt lat="46.34418927" lon="7.11477089"><ele>1673.4121093032</ele><time>2008-10-01T18:44:00Z</time></trkpt>
<trkpt lat="46.34411658" lon="7.11432454"><ele>1662.4125975456</ele><time>2008-10-01T18:44:00Z</time></trkpt>
<trkpt lat="46.34378228" lon="7.11394850"><ele>1660.4136962856</ele><time>2008-10-01T18:44:00Z</time></trkpt>
<trkpt lat="46.34349559" lon="7.11357218"><ele>1655.4147949296</ele><time>2008-10-01T18:44:00Z</time></trkpt>
<trkpt lat="46.34318489" lon="7.11312727"><ele>1657.4158934928</ele><time>2008-10-01T18:44:00Z</time></trkpt>
<trkpt lat="46.34301749" lon="7.11285334"><ele>1657.4165040072</ele><time>2008-10-01T18:44:00Z</time></trkpt>
<trkpt lat="46.34282540" lon="7.11227026"><ele>1645.4174805072</ele><time>2008-10-01T18:44:00Z</time></trkpt>
<trkpt lat="46.34244309" lon="7.11175706"><ele>1633.4188233768</ele><time>2008-10-01T18:44:00Z</time></trkpt>
<trkpt lat="46.34210918" lon="7.11151851"><ele>1632.419799924</ele><time>2008-10-01T18:44:00Z</time></trkpt>
<trkpt lat="46.34170318" lon="7.11103984"><ele>1628.42114244</ele><time>2008-10-01T18:44:00Z</time></trkpt>
<trkpt lat="46.34141587" lon="7.11045736"><ele>1624.4223633408</ele><time>2008-10-01T18:44:00Z</time></trkpt>
<trkpt lat="46.34110496" lon="7.10994375"><ele>1620.4235839368</ele><time>2008-10-01T18:44:00Z</time></trkpt>
<trkpt lat="46.34098395" lon="7.10925717"><ele>1610.4244385808</ele><time>2008-10-01T18:44:00Z</time></trkpt>
<trkpt lat="46.34072024" lon="7.10860583"><ele>1609.425537048</ele><time>2008-10-01T18:44:00Z</time></trkpt>
<trkpt lat="46.34074273" lon="7.10815894"><ele>1614.4259032728</ele><time>2008-10-01T18:44:00Z</time></trkpt>
<trkpt lat="46.34086143" lon="7.10805512"><ele>1614.425659128</ele><time>2008-10-01T18:44:00Z</time></trkpt>
<trkpt lat="46.34119464" lon="7.10805308"><ele>1609.4249268384</ele><time>2008-10-01T18:44:00Z</time></trkpt>
<trkpt lat="46.34152795" lon="7.10808541"><ele>1608.4240721472</ele><time>2008-10-01T18:44:00Z</time></trkpt>
<trkpt lat="46.34150335" lon="7.10781064"><ele>1611.424316388</ele><time>2008-10-01T18:44:00Z</time></trkpt>
<trkpt lat="46.34188335" lon="7.10753338"><ele>1614.4237059696</ele><time>2008-10-01T18:44:00Z</time></trkpt>
<trkpt lat="46.34228726" lon="7.10729035"><ele>1614.4228516152</ele><time>2008-10-01T18:44:00Z</time></trkpt>
<trkpt lat="46.34259667" lon="7.10728845"><ele>1617.4221192768</ele><time>2008-10-01T18:44:00Z</time></trkpt>
<trkpt lat="46.34295297" lon="7.10704570"><ele>1619.4215088264</ele><time>2008-10-01T18:44:00Z</time></trkpt>
<trkpt lat="46.34292826" lon="7.10673655"><ele>1631.4217530504</ele><time>2008-10-01T18:44:00Z</time></trkpt>
<trkpt lat="46.34264266" lon="7.10673831"><ele>1639.422485436</ele><time>2008-10-01T18:44:00Z</time></trkpt>
<trkpt lat="46.34211944" lon="7.10687898"><ele>1635.423584112</ele><time>2008-10-01T18:44:00Z</time></trkpt>
<trkpt lat="46.34183374" lon="7.10684636"><ele>1638.4243163376</ele><time>2008-10-01T18:44:00Z</time></trkpt>
<trkpt lat="46.34152332" lon="7.10650461"><ele>1641.4254149328</ele><time>2008-10-01T18:44:00Z</time></trkpt>
<trkpt lat="46.34149851" lon="7.10616110"><ele>1645.4257811256</ele><time>2008-10-01T18:44:00Z</time></trkpt>
<trkpt lat="46.34135418" lon="7.10564649"><ele>1649.426513688</ele><time>2008-10-01T18:44:00Z</time></trkpt>
<trkpt lat="46.34111496" lon="7.10523558"><ele>1655.4273682344</ele><time>2008-10-01T18:44:00Z</time></trkpt>
<trkpt lat="46.34073364" lon="7.10506610"><ele>1661.4284669256</ele><time>2008-10-01T18:44:00Z</time></trkpt>
<trkpt lat="46.34037653" lon="7.10503393"><ele>1666.42932144</ele><time>2008-10-01T18:44:00Z</time></trkpt>
<trkpt lat="46.33994812" lon="7.10503657"><ele>1677.4304199864</ele><time>2008-10-01T18:44:00Z</time></trkpt>
<trkpt lat="46.33952062" lon="7.10534849"><ele>1685.431152372</ele><time>2008-10-01T18:44:00Z</time></trkpt>
<trkpt lat="46.33845253" lon="7.10635163"><ele>1692.4329835296</ele><time>2008-10-01T18:44:00Z</time></trkpt>
<trkpt lat="46.33728691" lon="7.10656496"><ele>1709.4356690568</ele><time>2008-10-01T18:44:00Z</time></trkpt>
<trkpt lat="46.33640588" lon="7.10643292"><ele>1716.4378662792</ele><time>2008-10-01T18:44:00Z</time></trkpt>
<trkpt lat="46.33626196" lon="7.10605581"><ele>1719.4384765848</ele><time>2008-10-01T18:44:00Z</time></trkpt>
<trkpt lat="46.33635443" lon="7.10512745"><ele>1728.4390867776</ele><time>2008-10-01T18:44:00Z</time></trkpt>
<trkpt lat="46.33656660" lon="7.10443888"><ele>1734.4390869696</ele><time>2008-10-01T18:44:00Z</time></trkpt>
<trkpt lat="46.33603901" lon="7.10310199"><ele>1742.4415283688</ele><time>2008-10-01T18:44:00Z</time></trkpt>
<trkpt lat="46.33525257" lon="7.10276325"><ele>1752.4437256872</ele><time>2008-10-01T18:44:00Z</time></trkpt>
<trkpt lat="46.33429952" lon="7.10242555"><ele>1765.4462891664</ele><time>2008-10-01T18:44:00Z</time></trkpt>
<trkpt lat="46.33401269" lon="7.10201499"><ele>1765.4473876656</ele><time>2008-10-01T18:44:00Z</time></trkpt>
<trkpt lat="46.33398704" lon="7.10139665"><ele>1770.4478761152</ele><time>2008-10-01T18:44:00Z</time></trkpt>
<trkpt lat="46.33372369" lon="7.10088287"><ele>1773.4489747104</ele><time>2008-10-01T18:44:00Z</time></trkpt>
<trkpt lat="46.33350794" lon="7.10036880"><ele>1777.4499511128</ele><time>2008-10-01T18:44:00Z</time></trkpt>
<trkpt lat="46.33338760" lon="7.09992286"><ele>1782.4505614824</ele><time>2008-10-01T18:44:00Z</time></trkpt>
<trkpt lat="46.33314856" lon="7.09958075"><ele>1783.4514158688</ele><time>2008-10-01T18:44:00Z</time></trkpt>
<trkpt lat="46.33276744" lon="7.09948005"><ele>1789.45239264</ele><time>2008-10-01T18:44:00Z</time></trkpt>
<trkpt lat="46.33240961" lon="7.09920741"><ele>1795.4534913312</ele><time>2008-10-01T18:44:00Z</time></trkpt>
<trkpt lat="46.33207598" lon="7.09907206"><ele>1797.4544676696</ele><time>2008-10-01T18:44:00Z</time></trkpt>
<trkpt lat="46.33171805" lon="7.09876507"><ele>1806.4555664568</ele><time>2008-10-01T18:44:00Z</time></trkpt>
<trkpt lat="46.33138432" lon="7.09859536"><ele>1810.4565428592</ele><time>2008-10-01T18:44:00Z</time></trkpt>
<trkpt lat="46.33126324" lon="7.09790893"><ele>1813.4573973096</ele><time>2008-10-01T18:44:00Z</time></trkpt>
<trkpt lat="46.33114185" lon="7.09711943"><ele>1824.458373936</ele><time>2008-10-01T18:44:00Z</time></trkpt>
<trkpt lat="46.33073610" lon="7.09674403"><ele>1823.459594628</ele><time>2008-10-01T18:44:00Z</time></trkpt>
<trkpt lat="46.33066313" lon="7.09622911"><ele>1827.4602049656</ele><time>2008-10-01T18:44:00Z</time></trkpt>
<trkpt lat="46.33068558" lon="7.09578229"><ele>1833.4605712224</ele><time>2008-10-01T18:44:00Z</time></trkpt>
<trkpt lat="46.33070792" lon="7.09530112"><ele>1839.4609374792</ele><time>2008-10-01T18:44:00Z</time></trkpt>
<trkpt lat="46.33049236" lon="7.09485582"><ele>1844.4617919936</ele><time>2008-10-01T18:44:00Z</time></trkpt>
<trkpt lat="46.33025278" lon="7.09434196"><ele>1848.4627687008</ele><time>2008-10-01T18:44:00Z</time></trkpt>
<trkpt lat="46.33025173" lon="7.09399838"><ele>1842.4630126536</ele><time>2008-10-01T18:44:00Z</time></trkpt>
<trkpt lat="46.33005775" lon="7.09283141"><ele>1840.4644774584</ele><time>2008-10-01T18:44:00Z</time></trkpt>
<trkpt lat="46.32991400" lon="7.09252310"><ele>1836.4650878448</ele><time>2008-10-01T18:44:00Z</time></trkpt>
<trkpt lat="46.32957973" lon="7.09218165"><ele>1836.4661866488</ele><time>2008-10-01T18:44:00Z</time></trkpt>
<trkpt lat="46.32929296" lon="7.09180554"><ele>1837.4671629552</ele><time>2008-10-01T18:44:00Z</time></trkpt>
<trkpt lat="46.32912499" lon="7.09135996"><ele>1838.4680176464</ele><time>2008-10-01T18:44:00Z</time></trkpt>
<trkpt lat="46.32909992" lon="7.09094782"><ele>1839.4683837432</ele><time>2008-10-01T18:44:00Z</time></trkpt>
<trkpt lat="46.32926472" lon="7.09036267"><ele>1839.468505968</ele><time>2008-10-01T18:44:00Z</time></trkpt>
<trkpt lat="46.32931041" lon="7.08974392"><ele>1843.4688721608</ele><time>2008-10-01T18:44:00Z</time></trkpt>
<trkpt lat="46.32921383" lon="7.08929789"><ele>1837.4694824832</ele><time>2008-10-01T18:44:00Z</time></trkpt>
<trkpt lat="46.32890410" lon="7.08919681"><ele>1840.4703369336</ele><time>2008-10-01T18:44:00Z</time></trkpt>
<trkpt lat="46.32847548" lon="7.08913086"><ele>1848.4714356888</ele><time>2008-10-01T18:44:00Z</time></trkpt>
<trkpt lat="46.32816564" lon="7.08899543"><ele>1854.4722899304</ele><time>2008-10-01T18:44:00Z</time></trkpt>
<trkpt lat="46.32783201" lon="7.08886015"><ele>1860.4731444768</ele><time>2008-10-01T18:44:00Z</time></trkpt>
<trkpt lat="46.32754481" lon="7.08834665"><ele>1869.474243264</ele><time>2008-10-01T18:44:00Z</time></trkpt>
<trkpt lat="46.32728204" lon="7.08803914"><ele>1873.4752196664</ele><time>2008-10-01T18:44:00Z</time></trkpt>
<trkpt lat="46.32711426" lon="7.08766229"><ele>1872.4759520688</ele><time>2008-10-01T18:44:00Z</time></trkpt>
<trkpt lat="46.32694701" lon="7.08745724"><ele>1869.4764405672</ele><time>2008-10-01T18:44:00Z</time></trkpt>
<trkpt lat="46.32666140" lon="7.08745909"><ele>1869.4771730016</ele><time>2008-10-01T18:44:00Z</time></trkpt>
<trkpt lat="46.32630354" lon="7.08718656"><ele>1867.4782714368</ele><time>2008-10-01T18:44:00Z</time></trkpt>
<trkpt lat="46.32625476" lon="7.08680895"><ele>1867.4786378064</ele><time>2008-10-01T18:44:00Z</time></trkpt>
<trkpt lat="46.32608773" lon="7.08667261"><ele>1868.479248048</ele><time>2008-10-01T18:44:00Z</time></trkpt>
<trkpt lat="46.32580137" lon="7.08643398"><ele>1864.4801025792</ele><time>2008-10-01T18:44:00Z</time></trkpt>
<trkpt lat="46.32558652" lon="7.08622924"><ele>1863.4808349816</ele><time>2008-10-01T18:44:00Z</time></trkpt>
<trkpt lat="46.32529994" lon="7.08592190"><ele>1862.481689304</ele><time>2008-10-01T18:44:00Z</time></trkpt>
<trkpt lat="46.32513237" lon="7.08561379"><ele>1861.4824220112</ele><time>2008-10-01T18:44:00Z</time></trkpt>
<trkpt lat="46.32520152" lon="7.08489187"><ele>1867.4827879632</ele><time>2008-10-01T18:44:00Z</time></trkpt>
<trkpt lat="46.32527022" lon="7.08403252"><ele>1868.4833985096</ele><time>2008-10-01T18:44:00Z</time></trkpt>
<trkpt lat="46.32529273" lon="7.08362010"><ele>1869.4836426864</ele><time>2008-10-01T18:44:00Z</time></trkpt>
<trkpt lat="46.32571908" lon="7.08296454"><ele>1862.4831541728</ele><time>2008-10-01T18:44:00Z</time></trkpt>
<trkpt lat="46.32588330" lon="7.08220762"><ele>1852.4833983024</ele><time>2008-10-01T18:44:00Z</time></trkpt>
<trkpt lat="46.32588222" lon="7.08186407"><ele>1851.48364272</ele><time>2008-10-01T18:44:00Z</time></trkpt>
<trkpt lat="46.32609414" lon="7.08114119"><ele>1840.4837645928</ele><time>2008-10-01T18:44:00Z</time></trkpt>
<trkpt lat="46.32621107" lon="7.08048764"><ele>1834.4840088504</ele><time>2008-10-01T18:44:00Z</time></trkpt>
<trkpt lat="46.32613891" lon="7.08024762"><ele>1833.4843748832</ele><time>2008-10-01T18:44:00Z</time></trkpt>
<trkpt lat="46.32611390" lon="7.07986987"><ele>1832.4847412208</ele><time>2008-10-01T18:44:00Z</time></trkpt>
<trkpt lat="46.32616008" lon="7.07942293"><ele>1827.4849852056</ele><time>2008-10-01T18:44:00Z</time></trkpt>
<trkpt lat="46.32608649" lon="7.07873629"><ele>1820.4857177208</ele><time>2008-10-01T18:44:00Z</time></trkpt>
<trkpt lat="46.32584750" lon="7.07842867"><ele>1818.486572316</ele><time>2008-10-01T18:44:00Z</time></trkpt>
<trkpt lat="46.32572652" lon="7.07781106"><ele>1811.4874267512</ele><time>2008-10-01T18:44:00Z</time></trkpt>
<trkpt lat="46.32555772" lon="7.07712507"><ele>1817.4884032176</ele><time>2008-10-01T18:44:00Z</time></trkpt>
<trkpt lat="46.32529272" lon="7.07613051"><ele>1823.4897460536</ele><time>2008-10-01T18:44:00Z</time></trkpt>
<trkpt lat="46.32526792" lon="7.07582148"><ele>1822.4901123912</ele><time>2008-10-01T18:44:00Z</time></trkpt>
<trkpt lat="46.32540962" lon="7.07547697"><ele>1826.4901122144</ele><time>2008-10-01T18:44:00Z</time></trkpt>
<trkpt lat="46.32574239" lon="7.07533731"><ele>1826.48937978</ele><time>2008-10-01T18:44:00Z</time></trkpt>
<trkpt lat="46.32621840" lon="7.07533412"><ele>1824.4881592968</ele><time>2008-10-01T18:44:00Z</time></trkpt>
<trkpt lat="46.32636032" lon="7.07505832"><ele>1828.4880372</ele><time>2008-10-01T18:44:00Z</time></trkpt>
<trkpt lat="46.32614490" lon="7.07468184"><ele>1831.4888916504</ele><time>2008-10-01T18:44:00Z</time></trkpt>
<trkpt lat="46.32604892" lon="7.07444199"><ele>1831.48937994</ele><time>2008-10-01T18:44:00Z</time></trkpt>
<trkpt lat="46.32576287" lon="7.07430649"><ele>1833.4901124384</ele><time>2008-10-01T18:44:00Z</time></trkpt>
<trkpt lat="46.32509634" lon="7.07427662"><ele>1839.4918213392</ele><time>2008-10-01T18:44:00Z</time></trkpt>
<trkpt lat="46.32397760" lon="7.07424979"><ele>1846.4945068512</ele><time>2008-10-01T18:44:00Z</time></trkpt>
<trkpt lat="46.32335878" lon="7.07425395"><ele>1851.4960938</ele><time>2008-10-01T18:44:00Z</time></trkpt>
<trkpt lat="46.32278735" lon="7.07418909"><ele>1855.497436572</ele><time>2008-10-01T18:44:00Z</time></trkpt>
<trkpt lat="46.32250107" lon="7.07398489"><ele>1858.4982910224</ele><time>2008-10-01T18:44:00Z</time></trkpt>
<trkpt lat="46.32231089" lon="7.07405488"><ele>1858.498779312</ele><time>2008-10-01T18:44:00Z</time></trkpt>
<trkpt lat="46.32216809" lon="7.07405584"><ele>1857.4991456496</ele><time>2008-10-01T18:44:00Z</time></trkpt>
<trkpt lat="46.32204820" lon="7.07378181"><ele>1857.4996339392</ele><time>2008-10-01T18:44:00Z</time></trkpt>
<trkpt lat="46.32164380" lon="7.07385324"><ele>1847.5004882784</ele><time>2008-10-01T18:44:00Z</time></trkpt>
<trkpt lat="46.32121428" lon="7.07351260"><ele>1839.5018309712</ele><time>2008-10-01T18:44:00Z</time></trkpt>
<trkpt lat="46.32030930" lon="7.07334694"><ele>1832.5041502752</ele><time>2008-10-01T18:44:00Z</time></trkpt>
<trkpt lat="46.31987922" lon="7.07283455"><ele>1831.505615112</ele><time>2008-10-01T18:44:00Z</time></trkpt>
<trkpt lat="46.31961641" lon="7.07252715"><ele>1831.5065916912</ele><time>2008-10-01T18:44:00Z</time></trkpt>
<trkpt lat="46.31925851" lon="7.07225475"><ele>1833.5075683344</ele><time>2008-10-01T18:44:00Z</time></trkpt>
<trkpt lat="46.31882987" lon="7.07218895"><ele>1830.5086670424</ele><time>2008-10-01T18:44:00Z</time></trkpt>
<trkpt lat="46.31863902" lon="7.07205283"><ele>1829.50927722</ele><time>2008-10-01T18:44:00Z</time></trkpt>
<trkpt lat="46.31821016" lon="7.07191833"><ele>1825.5104981208</ele><time>2008-10-01T18:44:00Z</time></trkpt>
<trkpt lat="46.31801931" lon="7.07178221"><ele>1825.5109864104</ele><time>2008-10-01T18:44:00Z</time></trkpt>
<trkpt lat="46.31782824" lon="7.07157740"><ele>1830.51159678</ele><time>2008-10-01T18:44:00Z</time></trkpt>
<trkpt lat="46.31768398" lon="7.07113182"><ele>1836.5123291016</ele><time>2008-10-01T18:44:00Z</time></trkpt>
<trkpt lat="46.31746865" lon="7.07078977"><ele>1830.5131835688</ele><time>2008-10-01T18:44:00Z</time></trkpt>
<trkpt lat="46.31758575" lon="7.07020500"><ele>1821.5133058104</ele><time>2008-10-01T18:44:00Z</time></trkpt>
<trkpt lat="46.31782320" lon="7.07003163"><ele>1820.5129394088</ele><time>2008-10-01T18:44:00Z</time></trkpt>
<trkpt lat="46.31813182" lon="7.06978907"><ele>1821.5123292312</ele><time>2008-10-01T18:44:00Z</time></trkpt>
<trkpt lat="46.31855821" lon="7.06916784"><ele>1814.5118407176</ele><time>2008-10-01T18:44:00Z</time></trkpt>
<trkpt lat="46.31881866" lon="7.06875384"><ele>1809.5115967176</ele><time>2008-10-01T18:44:00Z</time></trkpt>
<trkpt lat="46.31907946" lon="7.06844289"><ele>1807.5112305888</ele><time>2008-10-01T18:44:00Z</time></trkpt>
<trkpt lat="46.31931611" lon="7.06802905"><ele>1807.510986444</ele><time>2008-10-01T18:44:00Z</time></trkpt>
<trkpt lat="46.31931475" lon="7.06761683"><ele>1806.5113524768</ele><time>2008-10-01T18:44:00Z</time></trkpt>
<trkpt lat="46.31919372" lon="7.06699932"><ele>1800.512085024</ele><time>2008-10-01T18:44:00Z</time></trkpt>
<trkpt lat="46.31919224" lon="7.06655276"><ele>1798.5124510248</ele><time>2008-10-01T18:44:00Z</time></trkpt>
<trkpt lat="46.31919043" lon="7.06600314"><ele>1799.5129393464</ele><time>2008-10-01T18:44:00Z</time></trkpt>
<trkpt lat="46.31916572" lon="7.06572849"><ele>1799.5131834912</ele><time>2008-10-01T18:44:00Z</time></trkpt>
<trkpt lat="46.31906938" lon="7.06538563"><ele>1795.5136719576</ele><time>2008-10-01T18:44:00Z</time></trkpt>
<trkpt lat="46.31890176" lon="7.06507762"><ele>1788.514404168</ele><time>2008-10-01T18:44:00Z</time></trkpt>
<trkpt lat="46.31890073" lon="7.06476846"><ele>1789.5146483448</ele><time>2008-10-01T18:44:00Z</time></trkpt>
<trkpt lat="46.31878013" lon="7.06428837"><ele>1789.5153807792</ele><time>2008-10-01T18:44:00Z</time></trkpt>
<trkpt lat="46.31868402" lon="7.06401422"><ele>1787.5157470848</ele><time>2008-10-01T18:44:00Z</time></trkpt>
<trkpt lat="46.31846856" lon="7.06363784"><ele>1783.516601616</ele><time>2008-10-01T18:44:00Z</time></trkpt>
<trkpt lat="46.31813524" lon="7.06360579"><ele>1779.5174561472</ele><time>2008-10-01T18:44:00Z</time></trkpt>
<trkpt lat="46.31796806" lon="7.06343519"><ele>1775.5179443088</ele><time>2008-10-01T18:44:00Z</time></trkpt>
<trkpt lat="46.31782503" lon="7.06336748"><ele>1771.5184324704</ele><time>2008-10-01T18:44:00Z</time></trkpt>
<trkpt lat="46.31791829" lon="7.06278286"><ele>1772.5186766472</ele><time>2008-10-01T18:44:00Z</time></trkpt>
<trkpt lat="46.31775122" lon="7.06264662"><ele>1765.5191650176</ele><time>2008-10-01T18:44:00Z</time></trkpt>
<trkpt lat="46.31810537" lon="7.06178537"><ele>1760.5190429376</ele><time>2008-10-01T18:44:00Z</time></trkpt>
<trkpt lat="46.31793658" lon="7.06113387"><ele>1744.5198973896</ele><time>2008-10-01T18:44:00Z</time></trkpt>
<trkpt lat="46.31788518" lon="7.06000064"><ele>1740.5209960656</ele><time>2008-10-01T18:44:00Z</time></trkpt>
<trkpt lat="46.31776468" lon="7.05955492"><ele>1745.5216064352</ele><time>2008-10-01T18:44:00Z</time></trkpt>
<trkpt lat="46.31757312" lon="7.05921275"><ele>1748.5224608856</ele><time>2008-10-01T18:44:00Z</time></trkpt>
<trkpt lat="46.31654749" lon="7.05856727"><ele>1725.5253904968</ele><time>2008-10-01T18:44:00Z</time></trkpt>
<trkpt lat="46.31652149" lon="7.05791479"><ele>1728.5260011072</ele><time>2008-10-01T18:44:00Z</time></trkpt>
<trkpt lat="46.31640202" lon="7.05777823"><ele>1723.5263673168</ele><time>2008-10-01T18:44:00Z</time></trkpt>
<trkpt lat="46.31623403" lon="7.05736721"><ele>1732.5272216544</ele><time>2008-10-01T18:44:00Z</time></trkpt>
<trkpt lat="46.31587540" lon="7.05688883"><ele>1738.5284422656</ele><time>2008-10-01T18:44:00Z</time></trkpt>
<trkpt lat="46.31542225" lon="7.05661723"><ele>1723.5297850392</ele><time>2008-10-01T18:44:00Z</time></trkpt>
<trkpt lat="46.31518320" lon="7.05630977"><ele>1720.5306396024</ele><time>2008-10-01T18:44:00Z</time></trkpt>
<trkpt lat="46.31482526" lon="7.05603750"><ele>1713.5316162624</ele><time>2008-10-01T18:44:00Z</time></trkpt>
<trkpt lat="46.31453790" lon="7.05552429"><ele>1714.5328370184</ele><time>2008-10-01T18:44:00Z</time></trkpt>
<trkpt lat="46.31408405" lon="7.05504661"><ele>1697.534301648</ele><time>2008-10-01T18:44:00Z</time></trkpt>
<trkpt lat="46.31386880" lon="7.05473899"><ele>1687.5350340672</ele><time>2008-10-01T18:44:00Z</time></trkpt>
<trkpt lat="46.31376950" lon="7.05353750"><ele>1692.5362549512</ele><time>2008-10-01T18:44:00Z</time></trkpt>
<trkpt lat="46.31357686" lon="7.05288624"><ele>1686.5372313384</ele><time>2008-10-01T18:44:00Z</time></trkpt>
<trkpt lat="46.31340814" lon="7.05226917"><ele>1683.5382081264</ele><time>2008-10-01T18:44:00Z</time></trkpt>
<trkpt lat="46.31314410" lon="7.05161843"><ele>1676.5393067064</ele><time>2008-10-01T18:44:00Z</time></trkpt>
<trkpt lat="46.31280912" lon="7.05110561"><ele>1672.5406495272</ele><time>2008-10-01T18:44:00Z</time></trkpt>
<trkpt lat="46.31175349" lon="7.04867449"><ele>1656.5451661512</ele><time>2008-10-01T18:44:00Z</time></trkpt>
<trkpt lat="46.31136423" lon="7.04623864"><ele>1632.5480957304</ele><time>2008-10-01T18:44:00Z</time></trkpt>
<trkpt lat="46.31143192" lon="7.04517338"><ele>1632.5488281648</ele><time>2008-10-01T18:44:00Z</time></trkpt>
<trkpt lat="46.31146484" lon="7.04098279"><ele>1634.5521240312</ele><time>2008-10-01T18:44:00Z</time></trkpt>
<trkpt lat="46.31103315" lon="7.04005858"><ele>1627.5539550456</ele><time>2008-10-01T18:44:00Z</time></trkpt>
<trkpt lat="46.31086388" lon="7.03930420"><ele>1627.5549316248</ele><time>2008-10-01T18:44:00Z</time></trkpt>
<trkpt lat="46.31076357" lon="7.03786237"><ele>1632.5563963488</ele><time>2008-10-01T18:44:00Z</time></trkpt>
<trkpt lat="46.31094945" lon="7.03659016"><ele>1635.5570069592</ele><time>2008-10-01T18:44:00Z</time></trkpt>
<trkpt lat="46.31130438" lon="7.03600363"><ele>1630.5565185096</ele><time>2008-10-01T18:44:00Z</time></trkpt>
<trkpt lat="46.31182529" lon="7.03524411"><ele>1618.5559082208</ele><time>2008-10-01T18:44:00Z</time></trkpt>
<trkpt lat="46.31241785" lon="7.03455275"><ele>1611.5550536424</ele><time>2008-10-01T18:44:00Z</time></trkpt>
<trkpt lat="46.31312866" lon="7.03365439"><ele>1602.55407708</ele><time>2008-10-01T18:44:00Z</time></trkpt>
<trkpt lat="46.31386228" lon="7.03248105"><ele>1596.5532225336</ele><time>2008-10-01T18:44:00Z</time></trkpt>
<trkpt lat="46.31416946" lon="7.03186046"><ele>1593.5529785976</ele><time>2008-10-01T18:44:00Z</time></trkpt>
<trkpt lat="46.31462130" lon="7.03175403"><ele>1591.5520019544</ele><time>2008-10-01T18:44:00Z</time></trkpt>
<trkpt lat="46.31512235" lon="7.03209376"><ele>1587.5505369576</ele><time>2008-10-01T18:44:00Z</time></trkpt>
<trkpt lat="46.31564807" lon="7.03267376"><ele>1581.5487061368</ele><time>2008-10-01T18:44:00Z</time></trkpt>
<trkpt lat="46.31607820" lon="7.03315144"><ele>1574.5473632688</ele><time>2008-10-01T18:44:00Z</time></trkpt>
<trkpt lat="46.31641301" lon="7.03359549"><ele>1566.5461425936</ele><time>2008-10-01T18:44:00Z</time></trkpt>
<trkpt lat="46.31667741" lon="7.03431488"><ele>1568.5449219336</ele><time>2008-10-01T18:44:00Z</time></trkpt>
<trkpt lat="46.31713109" lon="7.03472370"><ele>1561.5434571456</ele><time>2008-10-01T18:44:00Z</time></trkpt>
<trkpt lat="46.31765679" lon="7.03530375"><ele>1559.541748068</ele><time>2008-10-01T18:44:00Z</time></trkpt>
<trkpt lat="46.31813403" lon="7.03564371"><ele>1550.540283216</ele><time>2008-10-01T18:44:00Z</time></trkpt>
<trkpt lat="46.31866046" lon="7.03642989"><ele>1547.5384521864</ele><time>2008-10-01T18:44:00Z</time></trkpt>
<trkpt lat="46.31911438" lon="7.03690745"><ele>1540.5368651736</ele><time>2008-10-01T18:44:00Z</time></trkpt>
<trkpt lat="46.31937765" lon="7.03731772"><ele>1534.5358887072</ele><time>2008-10-01T18:44:00Z</time></trkpt>
<trkpt lat="46.31963982" lon="7.03741884"><ele>1529.5351561128</ele><time>2008-10-01T18:44:00Z</time></trkpt>
<trkpt lat="46.31990151" lon="7.03738255"><ele>1524.534546048</ele><time>2008-10-01T18:44:00Z</time></trkpt>
<trkpt lat="46.31980496" lon="7.03700538"><ele>1516.5351563064</ele><time>2008-10-01T18:44:00Z</time></trkpt>
<trkpt lat="46.31954303" lon="7.03697297"><ele>1522.535766708</ele><time>2008-10-01T18:44:00Z</time></trkpt>
<trkpt lat="46.31939913" lon="7.03666487"><ele>1525.5363770136</ele><time>2008-10-01T18:44:00Z</time></trkpt>
<trkpt lat="46.31956536" lon="7.03656058"><ele>1520.5361327088</ele><time>2008-10-01T18:44:00Z</time></trkpt>
<trkpt lat="46.31982705" lon="7.03652428"><ele>1508.53552242</ele><time>2008-10-01T18:44:00Z</time></trkpt>
<trkpt lat="46.32018577" lon="7.03700256"><ele>1502.534179584</ele><time>2008-10-01T18:44:00Z</time></trkpt>
<trkpt lat="46.32016062" lon="7.03662486"><ele>1500.5345458896</ele><time>2008-10-01T18:44:00Z</time></trkpt>
<trkpt lat="46.31987305" lon="7.03607736"><ele>1500.5357666136</ele><time>2008-10-01T18:44:00Z</time></trkpt>
<trkpt lat="46.31963260" lon="7.03539210"><ele>1505.5368652728</ele><time>2008-10-01T18:44:00Z</time></trkpt>
<trkpt lat="46.31951187" lon="7.03491206"><ele>1495.537597692</ele><time>2008-10-01T18:44:00Z</time></trkpt>
<trkpt lat="46.31932024" lon="7.03456997"><ele>1489.5383299344</ele><time>2008-10-01T18:44:00Z</time></trkpt>
<trkpt lat="46.31898617" lon="7.03433199"><ele>1491.5393065776</ele><time>2008-10-01T18:44:00Z</time></trkpt>
<trkpt lat="46.31869945" lon="7.03402496"><ele>1482.5402831736</ele><time>2008-10-01T18:44:00Z</time></trkpt>
<trkpt lat="46.31796016" lon="7.03361827"><ele>1492.5423582672</ele><time>2008-10-01T18:44:00Z</time></trkpt>
<trkpt lat="46.31764902" lon="7.03313968"><ele>1486.543579104</ele><time>2008-10-01T18:44:00Z</time></trkpt>
<trkpt lat="46.31721950" lon="7.03283373"><ele>1484.544799764</ele><time>2008-10-01T18:44:00Z</time></trkpt>
<trkpt lat="46.31690886" lon="7.03249255"><ele>1494.5458985832</ele><time>2008-10-01T18:44:00Z</time></trkpt>
<trkpt lat="46.31664483" lon="7.03187622"><ele>1489.5469969224</ele><time>2008-10-01T18:44:00Z</time></trkpt>
<trkpt lat="46.31623749" lon="7.03112357"><ele>1488.548583984</ele><time>2008-10-01T18:44:00Z</time></trkpt>
<trkpt lat="46.31599800" lon="7.03071317"><ele>1485.5495604672</ele><time>2008-10-01T18:44:00Z</time></trkpt>
<trkpt lat="46.31573458" lon="7.03026861"><ele>1488.5505371424</ele><time>2008-10-01T18:44:00Z</time></trkpt>
<trkpt lat="46.31532710" lon="7.02948163"><ele>1480.55212398</ele><time>2008-10-01T18:44:00Z</time></trkpt>
<trkpt lat="46.31477857" lon="7.02917663"><ele>1489.5537110568</ele><time>2008-10-01T18:44:00Z</time></trkpt>
<trkpt lat="46.31463440" lon="7.02879988"><ele>1481.5543213152</ele><time>2008-10-01T18:44:00Z</time></trkpt>
<trkpt lat="46.31432374" lon="7.02845873"><ele>1478.5554200232</ele><time>2008-10-01T18:44:00Z</time></trkpt>
<trkpt lat="46.31356337" lon="7.02880797"><ele>1475.557006716</ele><time>2008-10-01T18:44:00Z</time></trkpt>
<trkpt lat="46.31301782" lon="7.02932732"><ele>1469.5578611832</ele><time>2008-10-01T18:44:00Z</time></trkpt>
<trkpt lat="46.31242555" lon="7.03008745"><ele>1462.5587159232</ele><time>2008-10-01T18:44:00Z</time></trkpt>
<trkpt lat="46.31211638" lon="7.03015847"><ele>1453.5593261496</ele><time>2008-10-01T18:44:00Z</time></trkpt>
<trkpt lat="46.31183302" lon="7.03077886"><ele>1470.5595702288</ele><time>2008-10-01T18:44:00Z</time></trkpt>
<trkpt lat="46.31131027" lon="7.03102323"><ele>1468.5606689688</ele><time>2008-10-01T18:44:00Z</time></trkpt>
<trkpt lat="46.31078877" lon="7.03161104"><ele>1468.5614014032</ele><time>2008-10-01T18:44:00Z</time></trkpt>
<trkpt lat="46.31005008" lon="7.03137616"><ele>1452.5633543544</ele><time>2008-10-01T18:44:00Z</time></trkpt>
<trkpt lat="46.31009805" lon="7.03147884"><ele>1456.5632325624</ele><time>2008-10-01T18:44:00Z</time></trkpt>
<trkpt lat="46.30924073" lon="7.03134790"><ele>1444.5654297864</ele><time>2008-10-01T18:44:00Z</time></trkpt>
<trkpt lat="46.30854952" lon="7.03107833"><ele>1432.5672606408</ele><time>2008-10-01T18:44:00Z</time></trkpt>
<trkpt lat="46.30821532" lon="7.03080608"><ele>1433.5683594768</ele><time>2008-10-01T18:44:00Z</time></trkpt>
<trkpt lat="46.30790467" lon="7.03046496"><ele>1421.5693359768</ele><time>2008-10-01T18:44:00Z</time></trkpt>
<trkpt lat="46.30752411" lon="7.03053652"><ele>1423.5701903952</ele><time>2008-10-01T18:44:00Z</time></trkpt>
<trkpt lat="46.30690380" lon="7.03012906"><ele>1409.5720214904</ele><time>2008-10-01T18:44:00Z</time></trkpt>
<trkpt lat="46.30637969" lon="7.02999563"><ele>1408.5733644072</ele><time>2008-10-01T18:44:00Z</time></trkpt>
<trkpt lat="46.30576063" lon="7.02993161"><ele>1410.57495126</ele><time>2008-10-01T18:44:00Z</time></trkpt>
<trkpt lat="46.30544935" lon="7.02941880"><ele>1395.5761718088</ele><time>2008-10-01T18:44:00Z</time></trkpt>
<trkpt lat="46.30504374" lon="7.02914712"><ele>1383.5773924536</ele><time>2008-10-01T18:44:00Z</time></trkpt>
<trkpt lat="46.30461546" lon="7.02918470"><ele>1384.5783690648</ele><time>2008-10-01T18:44:00Z</time></trkpt>
<trkpt lat="46.30413944" lon="7.02918829"><ele>1369.5794676936</ele><time>2008-10-01T18:44:00Z</time></trkpt>
<trkpt lat="46.30361720" lon="7.02957000"><ele>1360.5804442896</ele><time>2008-10-01T18:44:00Z</time></trkpt>
<trkpt lat="46.30323639" lon="7.02957287"><ele>1363.5814209648</ele><time>2008-10-01T18:44:00Z</time></trkpt>
<trkpt lat="46.30273658" lon="7.02957664"><ele>1373.582641704</ele><time>2008-10-01T18:44:00Z</time></trkpt>
<trkpt lat="46.30218916" lon="7.02958077"><ele>1355.5838621568</ele><time>2008-10-01T18:44:00Z</time></trkpt>
<trkpt lat="46.30185521" lon="7.02937724"><ele>1346.5848387528</ele><time>2008-10-01T18:44:00Z</time></trkpt>
<trkpt lat="46.30152100" lon="7.02910504"><ele>1338.5859376056</ele><time>2008-10-01T18:44:00Z</time></trkpt>
<trkpt lat="46.30113944" lon="7.02890188"><ele>1332.5870362176</ele><time>2008-10-01T18:44:00Z</time></trkpt>
<trkpt lat="46.30052548" lon="7.03024579"><ele>1342.5874022976</ele><time>2008-10-01T18:44:00Z</time></trkpt>
<trkpt lat="46.30021905" lon="7.03107226"><ele>1345.5874023936</ele><time>2008-10-01T18:44:00Z</time></trkpt>
<trkpt lat="46.29993852" lon="7.03248231"><ele>1342.5870362328</ele><time>2008-10-01T18:44:00Z</time></trkpt>
<trkpt lat="46.30013349" lon="7.03375143"><ele>1346.5854492672</ele><time>2008-10-01T18:44:00Z</time></trkpt>
<trkpt lat="46.30051726" lon="7.03457273"><ele>1342.5838623504</ele><time>2008-10-01T18:44:00Z</time></trkpt>
<trkpt lat="46.30102296" lon="7.03621731"><ele>1332.5812989672</ele><time>2008-10-01T18:44:00Z</time></trkpt>
<trkpt lat="46.30131162" lon="7.03707369"><ele>1324.5799560672</ele><time>2008-10-01T18:44:00Z</time></trkpt>
<trkpt lat="46.30202808" lon="7.03775521"><ele>1322.57763678</ele><time>2008-10-01T18:44:00Z</time></trkpt>
<trkpt lat="46.30183840" lon="7.03796265"><ele>1312.5778809096</ele><time>2008-10-01T18:44:00Z</time></trkpt>
<trkpt lat="46.30205565" lon="7.03881958"><ele>1312.5766601856</ele><time>2008-10-01T18:44:00Z</time></trkpt>
<trkpt lat="46.30236664" lon="7.03926373"><ele>1313.5755614136</ele><time>2008-10-01T18:44:00Z</time></trkpt>
<trkpt lat="46.30255923" lon="7.03988046"><ele>1310.5745850432</ele><time>2008-10-01T18:44:00Z</time></trkpt>
<trkpt lat="46.30253604" lon="7.04005233"><ele>1307.5744630272</ele><time>2008-10-01T18:44:00Z</time></trkpt>
<trkpt lat="46.30275194" lon="7.04053153"><ele>1305.573608304</ele><time>2008-10-01T18:44:00Z</time></trkpt>
<trkpt lat="46.30318724" lon="7.04248583"><ele>1305.5709227112</ele><time>2008-10-01T18:44:00Z</time></trkpt>
<trkpt lat="46.30357346" lon="7.04402841"><ele>1312.568725632</ele><time>2008-10-01T18:44:00Z</time></trkpt>
<trkpt lat="46.30364739" lon="7.04474905"><ele>1311.5679931656</ele><time>2008-10-01T18:44:00Z</time></trkpt>
<trkpt lat="46.30400583" lon="7.04515856"><ele>1317.5667723288</ele><time>2008-10-01T18:44:00Z</time></trkpt>
<trkpt lat="46.30415354" lon="7.04656553"><ele>1318.565307492</ele><time>2008-10-01T18:44:00Z</time></trkpt>
<trkpt lat="46.30387067" lon="7.04735746"><ele>1316.5653077328</ele><time>2008-10-01T18:44:00Z</time></trkpt>
<trkpt lat="46.30375607" lon="7.04862895"><ele>1313.5645752024</ele><time>2008-10-01T18:44:00Z</time></trkpt>
<trkpt lat="46.30352410" lon="7.05038207"><ele>1313.563720848</ele><time>2008-10-01T18:44:00Z</time></trkpt>
<trkpt lat="46.30348181" lon="7.05192777"><ele>1317.5624999472</ele><time>2008-10-01T18:44:00Z</time></trkpt>
<trkpt lat="46.30341193" lon="7.05237472"><ele>1320.5623778184</ele><time>2008-10-01T18:44:00Z</time></trkpt>
<trkpt lat="46.30324545" lon="7.05241024"><ele>1318.562744124</ele><time>2008-10-01T18:44:00Z</time></trkpt>
<trkpt lat="46.30322388" lon="7.05306290"><ele>1319.5622558664</ele><time>2008-10-01T18:44:00Z</time></trkpt>
<trkpt lat="46.30298822" lon="7.05375141"><ele>1314.5622560112</ele><time>2008-10-01T18:44:00Z</time></trkpt>
<trkpt lat="46.30301447" lon="7.05447240"><ele>1314.5615235768</ele><time>2008-10-01T18:44:00Z</time></trkpt>
<trkpt lat="46.30334932" lon="7.05495082"><ele>1320.56042466</ele><time>2008-10-01T18:44:00Z</time></trkpt>
<trkpt lat="46.30332575" lon="7.05501967"><ele>1318.5604249008</ele><time>2008-10-01T18:44:00Z</time></trkpt>
<trkpt lat="46.30225496" lon="7.05509593"><ele>1315.5628662528</ele><time>2008-10-01T18:44:00Z</time></trkpt>
<trkpt lat="46.30106691" lon="7.05568813"><ele>1321.565307588</ele><time>2008-10-01T18:44:00Z</time></trkpt>
<trkpt lat="46.30040154" lon="7.05600189"><ele>1321.5666505368</ele><time>2008-10-01T18:44:00Z</time></trkpt>
<trkpt lat="46.29980804" lon="7.05645250"><ele>1322.567749068</ele><time>2008-10-01T18:44:00Z</time></trkpt>
<trkpt lat="46.29869255" lon="7.05738752"><ele>1324.5697022904</ele><time>2008-10-01T18:44:00Z</time></trkpt>
<trkpt lat="46.29816986" lon="7.05766590"><ele>1326.5706786288</ele><time>2008-10-01T18:44:00Z</time></trkpt>
<trkpt lat="46.29800407" lon="7.05790744"><ele>1329.5709228696</ele><time>2008-10-01T18:44:00Z</time></trkpt>
<trkpt lat="46.29788321" lon="7.05735887"><ele>1326.571655208</ele><time>2008-10-01T18:44:00Z</time></trkpt>
<trkpt lat="46.29797690" lon="7.05691181"><ele>1322.5717773048</ele><time>2008-10-01T18:44:00Z</time></trkpt>
<trkpt lat="46.29821340" lon="7.05646374"><ele>1318.5715333368</ele><time>2008-10-01T18:44:00Z</time></trkpt>
<trkpt lat="46.29856924" lon="7.05611784"><ele>1313.5710448872</ele><time>2008-10-01T18:44:00Z</time></trkpt>
<trkpt lat="46.29880632" lon="7.05584145"><ele>1310.5706787264</ele><time>2008-10-01T18:44:00Z</time></trkpt>
<trkpt lat="46.29863855" lon="7.05549925"><ele>1308.5712891768</ele><time>2008-10-01T18:44:00Z</time></trkpt>
<trkpt lat="46.29839949" lon="7.05519188"><ele>1305.5721434352</ele><time>2008-10-01T18:44:00Z</time></trkpt>
<trkpt lat="46.29806441" lon="7.05464483"><ele>1299.573364272</ele><time>2008-10-01T18:44:00Z</time></trkpt>
<trkpt lat="46.29761173" lon="7.05451069"><ele>1296.5745849</ele><time>2008-10-01T18:44:00Z</time></trkpt>
<trkpt lat="46.29734992" lon="7.05451254"><ele>1294.5751953504</ele><time>2008-10-01T18:44:00Z</time></trkpt>
<trkpt lat="46.29701765" lon="7.05478960"><ele>1299.57580572</ele><time>2008-10-01T18:44:00Z</time></trkpt>
<trkpt lat="46.29654316" lon="7.05523935"><ele>1299.5766600744</ele><time>2008-10-01T18:44:00Z</time></trkpt>
<trkpt lat="46.29654374" lon="7.05541104"><ele>1301.5764159936</ele><time>2008-10-01T18:44:00Z</time></trkpt>
<trkpt lat="46.29618778" lon="7.05572259"><ele>1301.577026508</ele><time>2008-10-01T18:44:00Z</time></trkpt>
<trkpt lat="46.29590287" lon="7.05593063"><ele>1301.5776367176</ele><time>2008-10-01T18:44:00Z</time></trkpt>
<trkpt lat="46.29568878" lon="7.05596648"><ele>1304.5781251032</ele><time>2008-10-01T18:44:00Z</time></trkpt>
<trkpt lat="46.29364135" lon="7.05580925"><ele>1299.5831297592</ele><time>2008-10-01T18:44:00Z</time></trkpt>
<trkpt lat="46.29325984" lon="7.05560593"><ele>1298.5842285312</ele><time>2008-10-01T18:44:00Z</time></trkpt>
<trkpt lat="46.29264149" lon="7.05574764"><ele>1297.585693368</ele><time>2008-10-01T18:44:00Z</time></trkpt>
<trkpt lat="46.29164443" lon="7.05651004"><ele>1301.5874022048</ele><time>2008-10-01T18:44:00Z</time></trkpt>
<trkpt lat="46.29169563" lon="7.05757406"><ele>1299.5864258664</ele><time>2008-10-01T18:44:00Z</time></trkpt>
<trkpt lat="46.29127173" lon="7.05891608"><ele>1293.5863037544</ele><time>2008-10-01T18:44:00Z</time></trkpt>
<trkpt lat="46.29063188" lon="7.05974458"><ele>1288.5872801736</ele><time>2008-10-01T18:44:00Z</time></trkpt>
<trkpt lat="46.29056290" lon="7.06046607"><ele>1289.586791916</ele><time>2008-10-01T18:44:00Z</time></trkpt>
<trkpt lat="46.29113825" lon="7.06169809"><ele>1286.5843506768</ele><time>2008-10-01T18:44:00Z</time></trkpt>
<trkpt lat="46.29125943" lon="7.06234961"><ele>1284.5836181784</ele><time>2008-10-01T18:44:00Z</time></trkpt>
<trkpt lat="46.29086179" lon="7.06444675"><ele>1281.582763728</ele><time>2008-10-01T18:44:00Z</time></trkpt>
<trkpt lat="46.28896092" lon="7.06542119"><ele>1271.5866700296</ele><time>2008-10-01T18:44:00Z</time></trkpt>
<trkpt lat="46.28791540" lon="7.06594337"><ele>1275.588745236</ele><time>2008-10-01T18:44:00Z</time></trkpt>
<trkpt lat="46.28758581" lon="7.06704426"><ele>1271.588623188</ele><time>2008-10-01T18:44:00Z</time></trkpt>
<trkpt lat="46.28801626" lon="7.06765930"><ele>1269.5870360304</ele><time>2008-10-01T18:44:00Z</time></trkpt>
<trkpt lat="46.28828054" lon="7.06841280"><ele>1263.5858154192</ele><time>2008-10-01T18:44:00Z</time></trkpt>
<trkpt lat="46.28792578" lon="7.06910187"><ele>1262.586059532</ele><time>2008-10-01T18:44:00Z</time></trkpt>
<trkpt lat="46.28778478" lon="7.06965215"><ele>1259.585937516</ele><time>2008-10-01T18:44:00Z</time></trkpt>
<trkpt lat="46.28802436" lon="7.07013117"><ele>1261.5849610008</ele><time>2008-10-01T18:44:00Z</time></trkpt>
<trkpt lat="46.28859949" lon="7.07132890"><ele>1250.5826417304</ele><time>2008-10-01T18:44:00Z</time></trkpt>
<trkpt lat="46.28826862" lon="7.07205212"><ele>1226.5828857168</ele><time>2008-10-01T18:44:00Z</time></trkpt>
<trkpt lat="46.28795988" lon="7.07226021"><ele>1235.5833739896</ele><time>2008-10-01T18:44:00Z</time></trkpt>
<trkpt lat="46.28765103" lon="7.07243396"><ele>1247.5839842784</ele><time>2008-10-01T18:44:00Z</time></trkpt>
<trkpt lat="46.28736632" lon="7.07271053"><ele>1251.584472696</ele><time>2008-10-01T18:44:00Z</time></trkpt>
<trkpt lat="46.28698584" lon="7.07281610"><ele>1254.5853271464</ele><time>2008-10-01T18:44:00Z</time></trkpt>
<trkpt lat="46.28646201" lon="7.07275097"><ele>1251.5866699992</ele><time>2008-10-01T18:44:00Z</time></trkpt>
<trkpt lat="46.28622433" lon="7.07285557"><ele>1250.5871582568</ele><time>2008-10-01T18:44:00Z</time></trkpt>
<trkpt lat="46.28601002" lon="7.07282268"><ele>1256.5876464336</ele><time>2008-10-01T18:44:00Z</time></trkpt>
<trkpt lat="46.28581816" lon="7.07237768"><ele>1252.5885009648</ele><time>2008-10-01T18:44:00Z</time></trkpt>
<trkpt lat="46.28553166" lon="7.07210496"><ele>1250.58947748</ele><time>2008-10-01T18:44:00Z</time></trkpt>
<trkpt lat="46.28512706" lon="7.07210770"><ele>1265.5904542344</ele><time>2008-10-01T18:44:00Z</time></trkpt>
<trkpt lat="46.28502951" lon="7.07138742"><ele>1246.5911866704</ele><time>2008-10-01T18:44:00Z</time></trkpt>
<trkpt lat="46.28483910" lon="7.07138871"><ele>1250.5916747832</ele><time>2008-10-01T18:44:00Z</time></trkpt>
<trkpt lat="46.28450567" lon="7.07132231"><ele>1251.5925291696</ele><time>2008-10-01T18:44:00Z</time></trkpt>
<trkpt lat="46.28424342" lon="7.07118677"><ele>1253.593261668</ele><time>2008-10-01T18:44:00Z</time></trkpt>
<trkpt lat="46.28383757" lon="7.07081189"><ele>1251.5946045528</ele><time>2008-10-01T18:44:00Z</time></trkpt>
<trkpt lat="46.28362258" lon="7.07057304"><ele>1256.5953368424</ele><time>2008-10-01T18:44:00Z</time></trkpt>
<trkpt lat="46.28321674" lon="7.07019817"><ele>1260.5965576944</ele><time>2008-10-01T18:44:00Z</time></trkpt>
<trkpt lat="46.28300299" lon="7.07033694"><ele>1262.597046048</ele><time>2008-10-01T18:44:00Z</time></trkpt>
<trkpt lat="46.25416579" lon="7.11211759"><ele>1304.6322021096</ele><time>2008-10-01T18:44:00Z</time></trkpt>
<trkpt lat="46.25385697" lon="7.11232531"><ele>1299.632690544</ele><time>2008-10-01T18:44:00Z</time></trkpt>
<trkpt lat="46.25361916" lon="7.11239536"><ele>1291.6331785776</ele><time>2008-10-01T18:44:00Z</time></trkpt>
<trkpt lat="46.25357315" lon="7.11294461"><ele>1296.6329345928</ele><time>2008-10-01T18:44:00Z</time></trkpt>
<trkpt lat="46.25340655" lon="7.11294561"><ele>1299.6333007536</ele><time>2008-10-01T18:44:00Z</time></trkpt>
<trkpt lat="46.25326295" lon="7.11267199"><ele>1296.633911172</ele><time>2008-10-01T18:44:00Z</time></trkpt>
<trkpt lat="46.25309565" lon="7.11243282"><ele>1298.6345214456</ele><time>2008-10-01T18:44:00Z</time></trkpt>
<trkpt lat="46.25283335" lon="7.11226285"><ele>1300.635253944</ele><time>2008-10-01T18:44:00Z</time></trkpt>
<trkpt lat="46.25259494" lon="7.11212705"><ele>1301.6358641856</ele><time>2008-10-01T18:44:00Z</time></trkpt>
<trkpt lat="46.25275916" lon="7.11130262"><ele>1292.636230572</ele><time>2008-10-01T18:44:00Z</time></trkpt>
<trkpt lat="46.25297237" lon="7.11095823"><ele>1288.6359862992</ele><time>2008-10-01T18:44:00Z</time></trkpt>
<trkpt lat="46.25299527" lon="7.11064930"><ele>1285.636230348</ele><time>2008-10-01T18:44:00Z</time></trkpt>
<trkpt lat="46.25280366" lon="7.11023873"><ele>1279.6369628952</ele><time>2008-10-01T18:44:00Z</time></trkpt>
<trkpt lat="46.25239775" lon="7.10979516"><ele>1273.638305652</ele><time>2008-10-01T18:44:00Z</time></trkpt>
<trkpt lat="46.25220664" lon="7.10955616"><ele>1273.6390380864</ele><time>2008-10-01T18:44:00Z</time></trkpt>
<trkpt lat="46.25220544" lon="7.10914445"><ele>1278.6392820864</ele><time>2008-10-01T18:44:00Z</time></trkpt>
<trkpt lat="46.25246745" lon="7.10921147"><ele>1270.6386719256</ele><time>2008-10-01T18:44:00Z</time></trkpt>
<trkpt lat="46.25263445" lon="7.10934770"><ele>1269.638183604</ele><time>2008-10-01T18:44:00Z</time></trkpt>
<trkpt lat="46.25306286" lon="7.10934510"><ele>1266.6370850088</ele><time>2008-10-01T18:44:00Z</time></trkpt>
<trkpt lat="46.25341977" lon="7.10930862"><ele>1257.6362303664</ele><time>2008-10-01T18:44:00Z</time></trkpt>
<trkpt lat="46.25377567" lon="7.10892904"><ele>1246.6357423344</ele><time>2008-10-01T18:44:00Z</time></trkpt>
<trkpt lat="46.25410818" lon="7.10868684"><ele>1235.6351317728</ele><time>2008-10-01T18:44:00Z</time></trkpt>
<trkpt lat="46.25420278" lon="7.10848040"><ele>1232.6350097568</ele><time>2008-10-01T18:44:00Z</time></trkpt>
<trkpt lat="46.25420177" lon="7.10813729"><ele>1229.6353760304</ele><time>2008-10-01T18:44:00Z</time></trkpt>
<trkpt lat="46.25441497" lon="7.10779288"><ele>1213.6351319832</ele><time>2008-10-01T18:44:00Z</time></trkpt>
<trkpt lat="46.25443766" lon="7.10741532"><ele>1211.635376064</ele><time>2008-10-01T18:44:00Z</time></trkpt>
<trkpt lat="46.25443594" lon="7.10683204"><ele>1210.6358643216</ele><time>2008-10-01T18:44:00Z</time></trkpt>
<trkpt lat="46.25467203" lon="7.10617868"><ele>1197.6358642104</ele><time>2008-10-01T18:44:00Z</time></trkpt>
<trkpt lat="46.25474252" lon="7.10586945"><ele>1191.6358643232</ele><time>2008-10-01T18:44:00Z</time></trkpt>
<trkpt lat="46.25474099" lon="7.10535479"><ele>1189.6363525488</ele><time>2008-10-01T18:44:00Z</time></trkpt>
<trkpt lat="46.25495225" lon="7.10435846"><ele>1177.6367188392</ele><time>2008-10-01T18:44:00Z</time></trkpt>
<trkpt lat="46.25497493" lon="7.10398089"><ele>1178.636963016</ele><time>2008-10-01T18:44:00Z</time></trkpt>
<trkpt lat="46.25490271" lon="7.10370685"><ele>1177.6373290488</ele><time>2008-10-01T18:44:00Z</time></trkpt>
<trkpt lat="46.25511610" lon="7.10343104"><ele>1166.6370848568</ele><time>2008-10-01T18:44:00Z</time></trkpt>
<trkpt lat="46.25528230" lon="7.10329276"><ele>1164.636718728</ele><time>2008-10-01T18:44:00Z</time></trkpt>
<trkpt lat="46.25563255" lon="7.10102602"><ele>1159.637817372</ele><time>2008-10-01T18:44:00Z</time></trkpt>
<trkpt lat="46.25591496" lon="7.09996058"><ele>1156.6379395008</ele><time>2008-10-01T18:44:00Z</time></trkpt>
<trkpt lat="46.25581625" lon="7.09879459"><ele>1155.6391601928</ele><time>2008-10-01T18:44:00Z</time></trkpt>
<trkpt lat="46.25588381" lon="7.09752463"><ele>1152.640014756</ele><time>2008-10-01T18:44:00Z</time></trkpt>
<trkpt lat="46.25623791" lon="7.09656166"><ele>1148.640014628</ele><time>2008-10-01T18:44:00Z</time></trkpt>
<trkpt lat="46.25732721" lon="7.09473620"><ele>1144.6389160008</ele><time>2008-10-01T18:44:00Z</time></trkpt>
<trkpt lat="46.25684500" lon="7.09271481"><ele>1133.6417237712</ele><time>2008-10-01T18:44:00Z</time></trkpt>
<trkpt lat="46.25650904" lon="7.09182483"><ele>1128.6433104</ele><time>2008-10-01T18:44:00Z</time></trkpt>
<trkpt lat="46.25619773" lon="7.09120920"><ele>1124.6445313008</ele><time>2008-10-01T18:44:00Z</time></trkpt>
<trkpt lat="46.25595740" lon="7.09045588"><ele>1122.6457519608</ele><time>2008-10-01T18:44:00Z</time></trkpt>
<trkpt lat="46.25562292" lon="7.09004628"><ele>1121.6468507328</ele><time>2008-10-01T18:44:00Z</time></trkpt>
<trkpt lat="46.25547969" lon="7.08990996"><ele>1121.6473387176</ele><time>2008-10-01T18:44:00Z</time></trkpt>
<trkpt lat="46.25519514" lon="7.09025490"><ele>1119.6477050232</ele><time>2008-10-01T18:44:00Z</time></trkpt>
<trkpt lat="46.25483739" lon="7.09001702"><ele>1117.6488037632</ele><time>2008-10-01T18:44:00Z</time></trkpt>
<trkpt lat="46.25452596" lon="7.08936711"><ele>1112.6500243272</ele><time>2008-10-01T18:44:00Z</time></trkpt>
<trkpt lat="46.25445264" lon="7.08874998"><ele>1109.6507569704</ele><time>2008-10-01T18:44:00Z</time></trkpt>
<trkpt lat="46.25459267" lon="7.08785698"><ele>1104.65112318</ele><time>2008-10-01T18:44:00Z</time></trkpt>
<trkpt lat="46.25435306" lon="7.08734387"><ele>1107.6520995504</ele><time>2008-10-01T18:44:00Z</time></trkpt>
<trkpt lat="46.25432712" lon="7.08665782"><ele>1113.6528321768</ele><time>2008-10-01T18:44:00Z</time></trkpt>
<trkpt lat="46.25449115" lon="7.08583328"><ele>1114.6530760488</ele><time>2008-10-01T18:44:00Z</time></trkpt>
<trkpt lat="46.25496512" lon="7.08517828"><ele>1109.6524656792</ele><time>2008-10-01T18:44:00Z</time></trkpt>
<trkpt lat="46.25532084" lon="7.08476422"><ele>1104.6519775344</ele><time>2008-10-01T18:44:00Z</time></trkpt>
<trkpt lat="46.25574742" lon="7.08417814"><ele>1097.6513671008</ele><time>2008-10-01T18:44:00Z</time></trkpt>
<trkpt lat="46.25591164" lon="7.08342220"><ele>1086.6516111984</ele><time>2008-10-01T18:44:00Z</time></trkpt>
<trkpt lat="46.25574330" lon="7.08287431"><ele>1073.6524657464</ele><time>2008-10-01T18:44:00Z</time></trkpt>
<trkpt lat="46.25543259" lon="7.08246460"><ele>1060.6535644392</ele><time>2008-10-01T18:44:00Z</time></trkpt>
<trkpt lat="46.25517068" lon="7.08243201"><ele>1061.6541746808</ele><time>2008-10-01T18:44:00Z</time></trkpt>
<trkpt lat="46.25476542" lon="7.08222880"><ele>1063.6553954688</ele><time>2008-10-01T18:44:00Z</time></trkpt>
<trkpt lat="46.25438320" lon="7.08178527"><ele>1075.656616272</ele><time>2008-10-01T18:44:00Z</time></trkpt>
<trkpt lat="46.25414258" lon="7.08096339"><ele>1075.657958916</ele><time>2008-10-01T18:44:00Z</time></trkpt>
<trkpt lat="46.25423560" lon="7.08027656"><ele>1063.6582029816</ele><time>2008-10-01T18:44:00Z</time></trkpt>
<trkpt lat="46.25444795" lon="7.07969187"><ele>1065.6582030456</ele><time>2008-10-01T18:44:00Z</time></trkpt>
<trkpt lat="46.25470856" lon="7.07931272"><ele>1049.6579589984</ele><time>2008-10-01T18:44:00Z</time></trkpt>
<trkpt lat="46.25465876" lon="7.07862682"><ele>1047.6585694488</ele><time>2008-10-01T18:44:00Z</time></trkpt>
<trkpt lat="46.25467960" lon="7.07770028"><ele>1034.659301772</ele><time>2008-10-01T18:44:00Z</time></trkpt>
<trkpt lat="46.25470142" lon="7.07708253"><ele>1037.6597901576</ele><time>2008-10-01T18:44:00Z</time></trkpt>
<trkpt lat="46.25486571" lon="7.07636089"><ele>1025.6599119984</ele><time>2008-10-01T18:44:00Z</time></trkpt>
<trkpt lat="46.25507760" lon="7.07563893"><ele>1014.660034176</ele><time>2008-10-01T18:44:00Z</time></trkpt>
<trkpt lat="46.25536022" lon="7.07471062"><ele>1011.6600953448</ele><time>2008-10-01T18:44:00Z</time></trkpt>
<trkpt lat="46.25566763" lon="7.07409095"><ele>1011.65991216</ele><time>2008-10-01T18:44:00Z</time></trkpt>
<trkpt lat="46.25588105" lon="7.07384933"><ele>1000.659546048</ele><time>2008-10-01T18:44:00Z</time></trkpt>
<trkpt lat="46.25597425" lon="7.07323108"><ele>993.6598509288</ele><time>2008-10-01T18:44:00Z</time></trkpt>
<trkpt lat="46.25623350" lon="7.07244015"><ele>989.6598511056</ele><time>2008-10-01T18:44:00Z</time></trkpt>
<trkpt lat="46.25661275" lon="7.07195722"><ele>982.6593628968</ele><time>2008-10-01T18:44:00Z</time></trkpt>
<trkpt lat="46.25691958" lon="7.07116595"><ele>976.6593017448</ele><time>2008-10-01T18:44:00Z</time></trkpt>
<trkpt lat="46.25741738" lon="7.07054494"><ele>967.6585693272</ele><time>2008-10-01T18:44:00Z</time></trkpt>
<trkpt lat="46.25808480" lon="7.07084923"><ele>948.6567383952</ele><time>2008-10-01T18:44:00Z</time></trkpt>
<trkpt lat="46.25837074" lon="7.07095023"><ele>942.6559448088</ele><time>2008-10-01T18:44:00Z</time></trkpt>
<trkpt lat="46.25855992" lon="7.07057150"><ele>939.6558227928</ele><time>2008-10-01T18:44:00Z</time></trkpt>
<trkpt lat="46.25905816" lon="7.07008772"><ele>936.6550293024</ele><time>2008-10-01T18:44:00Z</time></trkpt>
<trkpt lat="46.25979597" lon="7.07008270"><ele>925.6531983216</ele><time>2008-10-01T18:44:00Z</time></trkpt>
<trkpt lat="46.26029455" lon="7.06970185"><ele>918.6523437432</ele><time>2008-10-01T18:44:00Z</time></trkpt>
<trkpt lat="46.26062652" lon="7.06932213"><ele>916.6518553896</ele><time>2008-10-01T18:44:00Z</time></trkpt>
<trkpt lat="46.26090932" lon="7.06846232"><ele>911.6518555344</ele><time>2008-10-01T18:44:00Z</time></trkpt>
<trkpt lat="46.26143045" lon="7.06770382"><ele>901.6512450048</ele><time>2008-10-01T18:44:00Z</time></trkpt>
<trkpt lat="46.26173782" lon="7.06708403"><ele>891.6510008448</ele><time>2008-10-01T18:44:00Z</time></trkpt>
<trkpt lat="46.26218652" lon="7.06601716"><ele>882.6508179816</ele><time>2008-10-01T18:44:00Z</time></trkpt>
<trkpt lat="46.26268440" lon="7.06543036"><ele>875.6500853232</ele><time>2008-10-01T18:44:00Z</time></trkpt>
<trkpt lat="46.26301613" lon="7.06498196"><ele>868.6496580744</ele><time>2008-10-01T18:44:00Z</time></trkpt>
<trkpt lat="46.26320255" lon="7.06377959"><ele>858.6502076136</ele><time>2008-10-01T18:44:00Z</time></trkpt>
<trkpt lat="46.26350887" lon="7.06285092"><ele>851.6502073896</ele><time>2008-10-01T18:44:00Z</time></trkpt>
<trkpt lat="46.26374470" lon="7.06219726"><ele>849.6501463656</ele><time>2008-10-01T18:44:00Z</time></trkpt>
<trkpt lat="46.26395558" lon="7.06120060"><ele>843.6505125432</ele><time>2008-10-01T18:44:00Z</time></trkpt>
<trkpt lat="46.26404294" lon="7.05886642"><ele>821.6521605024</ele><time>2008-10-01T18:44:00Z</time></trkpt>
<trkpt lat="46.26468625" lon="7.05906782"><ele>818.6504516976</ele><time>2008-10-01T18:44:00Z</time></trkpt>
<trkpt lat="46.26528103" lon="7.05899502"><ele>810.6491087976</ele><time>2008-10-01T18:44:00Z</time></trkpt>
<trkpt lat="46.26563827" lon="7.05906115"><ele>803.6481932592</ele><time>2008-10-01T18:44:00Z</time></trkpt>
<trkpt lat="46.26578338" lon="7.05974650"><ele>800.6472778488</ele><time>2008-10-01T18:44:00Z</time></trkpt>
<trkpt lat="46.26580948" lon="7.06043269"><ele>803.6466674304</ele><time>2008-10-01T18:44:00Z</time></trkpt>
<trkpt lat="46.26583570" lon="7.06115319"><ele>795.6459960048</ele><time>2008-10-01T18:44:00Z</time></trkpt>
<trkpt lat="46.26619351" lon="7.06139093"><ele>784.6448974584</ele><time>2008-10-01T18:44:00Z</time></trkpt>
<trkpt lat="46.26633390" lon="7.06066926"><ele>783.6452025312</ele><time>2008-10-01T18:44:00Z</time></trkpt>
<trkpt lat="46.26659075" lon="7.05919176"><ele>780.6457519896</ele><time>2008-10-01T18:44:00Z</time></trkpt>
<trkpt lat="46.26637516" lon="7.05878144"><ele>771.6466063608</ele><time>2008-10-01T18:44:00Z</time></trkpt>
<trkpt lat="46.26623073" lon="7.05830199"><ele>767.647338972</ele><time>2008-10-01T18:44:00Z</time></trkpt>
<trkpt lat="46.26627613" lon="7.05764962"><ele>764.6477662056</ele><time>2008-10-01T18:44:00Z</time></trkpt>
<trkpt lat="46.26627416" lon="7.05706622"><ele>764.6482544952</ele><time>2008-10-01T18:44:00Z</time></trkpt>
<trkpt lat="46.26612915" lon="7.05641519"><ele>769.6491699696</ele><time>2008-10-01T18:44:00Z</time></trkpt>
<trkpt lat="46.26581788" lon="7.05586828"><ele>759.6503297184</ele><time>2008-10-01T18:44:00Z</time></trkpt>
<trkpt lat="46.26553133" lon="7.05559576"><ele>747.6512452584</ele><time>2008-10-01T18:44:00Z</time></trkpt>
<trkpt lat="46.26529193" lon="7.05518563"><ele>745.6521605088</ele><time>2008-10-01T18:44:00Z</time></trkpt>
<trkpt lat="46.26498042" lon="7.05457011"><ele>741.6534423696</ele><time>2008-10-01T18:44:00Z</time></trkpt>
<trkpt lat="46.26495217" lon="7.05326624"><ele>734.6546019096</ele><time>2008-10-01T18:44:00Z</time></trkpt>
<trkpt lat="46.26471158" lon="7.05251296"><ele>727.6557617544</ele><time>2008-10-01T18:44:00Z</time></trkpt>
<trkpt lat="46.26439982" lon="7.05182883"><ele>720.6571044792</ele><time>2008-10-01T18:44:00Z</time></trkpt>
<trkpt lat="46.26394666" lon="7.05155752"><ele>714.658386276</ele><time>2008-10-01T18:44:00Z</time></trkpt>
<trkpt lat="46.26373164" lon="7.05131884"><ele>734.6591187408</ele><time>2008-10-01T18:44:00Z</time></trkpt>
<trkpt lat="46.26365751" lon="7.05053007"><ele>707.6599731456</ele><time>2008-10-01T18:44:00Z</time></trkpt>
<trkpt lat="46.26365515" lon="7.04984375"><ele>707.6605223952</ele><time>2008-10-01T18:44:00Z</time></trkpt>
<trkpt lat="46.26396314" lon="7.04942973"><ele>704.6600952744</ele><time>2008-10-01T18:44:00Z</time></trkpt>
<trkpt lat="46.26434299" lon="7.04915247"><ele>687.6594238656</ele><time>2008-10-01T18:44:00Z</time></trkpt>
<trkpt lat="46.26457981" lon="7.04880759"><ele>682.6591186008</ele><time>2008-10-01T18:44:00Z</time></trkpt>
<trkpt lat="46.26453067" lon="7.04836181"><ele>678.6596070672</ele><time>2008-10-01T18:44:00Z</time></trkpt>
<trkpt lat="46.26418995" lon="7.04620227"><ele>653.6622315096</ele><time>2008-10-01T18:44:00Z</time></trkpt>
<trkpt lat="46.26421160" lon="7.04558440"><ele>649.6626587112</ele><time>2008-10-01T18:44:00Z</time></trkpt>
<trkpt lat="46.26435141" lon="7.04472545"><ele>643.6630248888</ele><time>2008-10-01T18:44:00Z</time></trkpt>
<trkpt lat="46.26435009" lon="7.04434797"><ele>641.6633299296</ele><time>2008-10-01T18:44:00Z</time></trkpt>
<trkpt lat="46.26439565" lon="7.04376424"><ele>647.6636961864</ele><time>2008-10-01T18:44:00Z</time></trkpt>
<trkpt lat="46.26465649" lon="7.04348780"><ele>639.6632689056</ele><time>2008-10-01T18:44:00Z</time></trkpt>
<trkpt lat="46.26505930" lon="7.04297009"><ele>627.6627195768</ele><time>2008-10-01T18:44:00Z</time></trkpt>
<trkpt lat="46.26524862" lon="7.04265985"><ele>625.6625366328</ele><time>2008-10-01T18:44:00Z</time></trkpt>
<trkpt lat="46.26524548" lon="7.04176760"><ele>623.6632690032</ele><time>2008-10-01T18:44:00Z</time></trkpt>
<trkpt lat="46.26503043" lon="7.04152895"><ele>616.6640015184</ele><time>2008-10-01T18:44:00Z</time></trkpt>
<trkpt lat="46.26502861" lon="7.04101419"><ele>612.66442872</ele><time>2008-10-01T18:44:00Z</time></trkpt>
<trkpt lat="46.26516766" lon="7.03994932"><ele>605.6649780504</ele><time>2008-10-01T18:44:00Z</time></trkpt>
<trkpt lat="46.26523761" lon="7.03953699"><ele>620.6651001456</ele><time>2008-10-01T18:44:00Z</time></trkpt>
<trkpt lat="46.26556948" lon="7.03915704"><ele>608.6646117768</ele><time>2008-10-01T18:44:00Z</time></trkpt>
<trkpt lat="46.26580590" lon="7.03870916"><ele>604.6644287688</ele><time>2008-10-01T18:44:00Z</time></trkpt>
<trkpt lat="46.26594663" lon="7.03812471"><ele>603.6645506568</ele><time>2008-10-01T18:44:00Z</time></trkpt>
<trkpt lat="46.26601547" lon="7.03740351"><ele>594.6649780032</ele><time>2008-10-01T18:44:00Z</time></trkpt>
<trkpt lat="46.26594138" lon="7.03664905"><ele>589.6657715424</ele><time>2008-10-01T18:44:00Z</time></trkpt>
<trkpt lat="46.26572473" lon="7.03596429"><ele>587.6668699776</ele><time>2008-10-01T18:44:00Z</time></trkpt>
<trkpt lat="46.26569994" lon="7.03568993"><ele>585.6671753232</ele><time>2008-10-01T18:44:00Z</time></trkpt>
<trkpt lat="46.26569626" lon="7.03466041"><ele>579.6679688304</ele><time>2008-10-01T18:44:00Z</time></trkpt>
<trkpt lat="46.26557541" lon="7.03414653"><ele>572.6687010408</ele><time>2008-10-01T18:44:00Z</time></trkpt>
<trkpt lat="46.26543211" lon="7.03401033"><ele>570.6691895712</ele><time>2008-10-01T18:44:00Z</time></trkpt>
<trkpt lat="46.26521606" lon="7.03349717"><ele>568.6701051264</ele><time>2008-10-01T18:44:00Z</time></trkpt>
<trkpt lat="46.26502294" lon="7.03274362"><ele>565.6712035296</ele><time>2008-10-01T18:44:00Z</time></trkpt>
<trkpt lat="46.26490196" lon="7.03219544"><ele>559.6719360768</ele><time>2008-10-01T18:44:00Z</time></trkpt>
<trkpt lat="46.26468615" lon="7.03175092"><ele>558.6727903992</ele><time>2008-10-01T18:44:00Z</time></trkpt>
<trkpt lat="46.26442310" lon="7.03140972"><ele>557.6737059864</ele><time>2008-10-01T18:44:00Z</time></trkpt>
<trkpt lat="46.26423220" lon="7.03127388"><ele>556.6743164688</ele><time>2008-10-01T18:44:00Z</time></trkpt>
<trkpt lat="46.26394610" lon="7.03113876"><ele>558.6751099272</ele><time>2008-10-01T18:44:00Z</time></trkpt>
<trkpt lat="46.26380243" lon="7.03089962"><ele>556.6756591128</ele><time>2008-10-01T18:44:00Z</time></trkpt>
<trkpt lat="46.26361078" lon="7.03055789"><ele>557.6763915792</ele><time>2008-10-01T18:44:00Z</time></trkpt>
<trkpt lat="46.26344293" lon="7.03021599"><ele>554.6770629576</ele><time>2008-10-01T18:44:00Z</time></trkpt>
<trkpt lat="46.26329876" lon="7.02983959"><ele>546.6777344808</ele><time>2008-10-01T18:44:00Z</time></trkpt>
<trkpt lat="46.26289390" lon="7.02977400"><ele>544.678771956</ele><time>2008-10-01T18:44:00Z</time></trkpt>
<trkpt lat="46.26267895" lon="7.02956972"><ele>541.6794433344</ele><time>2008-10-01T18:44:00Z</time></trkpt>
<trkpt lat="46.26222649" lon="7.02950450"><ele>541.6806030984</ele><time>2008-10-01T18:44:00Z</time></trkpt>
<trkpt lat="46.26194089" lon="7.02950666"><ele>539.6812745088</ele><time>2008-10-01T18:44:00Z</time></trkpt>
<trkpt lat="46.26177416" lon="7.02947360"><ele>538.6817018064</ele><time>2008-10-01T18:44:00Z</time></trkpt>
<trkpt lat="46.26163098" lon="7.02937173"><ele>536.6821287672</ele><time>2008-10-01T18:44:00Z</time></trkpt>
<trkpt lat="46.26134463" lon="7.02916800"><ele>535.6829833944</ele><time>2008-10-01T18:44:00Z</time></trkpt>
<trkpt lat="46.26101167" lon="7.02923914"><ele>532.6837157328</ele><time>2008-10-01T18:44:00Z</time></trkpt>
<trkpt lat="46.26089080" lon="7.02872532"><ele>540.6844481184</ele><time>2008-10-01T18:44:00Z</time></trkpt>
<trkpt lat="46.26046214" lon="7.02865993"><ele>542.6855469864</ele><time>2008-10-01T18:44:00Z</time></trkpt>
<trkpt lat="46.26015360" lon="7.02890247"><ele>537.686096076</ele><time>2008-10-01T18:44:00Z</time></trkpt>
<trkpt lat="46.25986937" lon="7.02928208"><ele>536.6864624136</ele><time>2008-10-01T18:44:00Z</time></trkpt>
<trkpt lat="46.25946575" lon="7.02955964"><ele>542.6871947352</ele><time>2008-10-01T18:44:00Z</time></trkpt>
<trkpt lat="46.25884694" lon="7.02956430"><ele>535.6886596848</ele><time>2008-10-01T18:44:00Z</time></trkpt>
<trkpt lat="46.25808532" lon="7.02957004"><ele>530.6904907632</ele><time>2008-10-01T18:44:00Z</time></trkpt>
<trkpt lat="46.25763224" lon="7.02933327"><ele>529.6917724152</ele><time>2008-10-01T18:44:00Z</time></trkpt>
<trkpt lat="46.25713093" lon="7.02892529"><ele>523.6933593168</ele><time>2008-10-01T18:44:00Z</time></trkpt>
<trkpt lat="46.25672333" lon="7.02810487"><ele>525.6950074344</ele><time>2008-10-01T18:44:00Z</time></trkpt>
<trkpt lat="46.25617216" lon="7.02707967"><ele>525.6971434728</ele><time>2008-10-01T18:44:00Z</time></trkpt>
<trkpt lat="46.25581453" lon="7.02691082"><ele>518.6981810928</ele><time>2008-10-01T18:44:00Z</time></trkpt>
<trkpt lat="46.25538461" lon="7.02650234"><ele>511.6995238176</ele><time>2008-10-01T18:44:00Z</time></trkpt>
<trkpt lat="46.25528828" lon="7.02619426"><ele>513.7000121712</ele><time>2008-10-01T18:44:00Z</time></trkpt>
<trkpt lat="46.25519308" lon="7.02619499"><ele>511.700256252</ele><time>2008-10-01T18:44:00Z</time></trkpt>
<trkpt lat="46.25457150" lon="7.02544486"><ele>510.7023620832</ele><time>2008-10-01T18:44:00Z</time></trkpt>
<trkpt lat="46.25421348" lon="7.02517310"><ele>505.7034302472</ele><time>2008-10-01T18:44:00Z</time></trkpt>
<trkpt lat="46.25402333" lon="7.02524317"><ele>502.7038270008</ele><time>2008-10-01T18:44:00Z</time></trkpt>
<trkpt lat="46.25347365" lon="7.02462977"><ele>494.7056579832</ele><time>2008-10-01T18:44:00Z</time></trkpt>
<trkpt lat="46.25313716" lon="7.02374026"><ele>491.7072145008</ele><time>2008-10-01T18:44:00Z</time></trkpt>
<trkpt lat="46.25303817" lon="7.02271171"><ele>490.708282488</ele><time>2008-10-01T18:44:00Z</time></trkpt>
<trkpt lat="46.25267964" lon="7.02230273"><ele>489.7094727</ele><time>2008-10-01T18:44:00Z</time></trkpt>
<trkpt lat="46.25186827" lon="7.02172569"><ele>489.711914148</ele><time>2008-10-01T18:44:00Z</time></trkpt>
<trkpt lat="46.25131959" lon="7.02138682"><ele>487.7135008728</ele><time>2008-10-01T18:44:00Z</time></trkpt>
<trkpt lat="46.25086598" lon="7.02101291"><ele>485.7149047176</ele><time>2008-10-01T18:44:00Z</time></trkpt>
<trkpt lat="46.25060061" lon="7.02005430"><ele>483.7163085624</ele><time>2008-10-01T18:44:00Z</time></trkpt>
<trkpt lat="46.25045934" lon="7.02046710"><ele>485.7163086264</ele><time>2008-10-01T18:44:00Z</time></trkpt>
<trkpt lat="46.24988149" lon="7.01868751"><ele>482.719177308</ele><time>2008-10-01T18:44:00Z</time></trkpt>
<trkpt lat="46.24942532" lon="7.01762749"><ele>481.7211304344</ele><time>2008-10-01T18:44:00Z</time></trkpt>
<trkpt lat="46.24867838" lon="7.01519744"><ele>478.7249144304</ele><time>2008-10-01T18:44:00Z</time></trkpt>
<trkpt lat="46.24783580" lon="7.01266529"><ele>475.729003836</ele><time>2008-10-01T18:44:00Z</time></trkpt>
<trkpt lat="46.24740791" lon="7.01280588"><ele>476.7299194872</ele><time>2008-10-01T18:44:00Z</time></trkpt>
<trkpt lat="46.24702658" lon="7.01267164"><ele>477.7309265784</ele><time>2008-10-01T18:44:00Z</time></trkpt>
<trkpt lat="46.24664461" lon="7.01236589"><ele>478.7321165496</ele><time>2008-10-01T18:44:00Z</time></trkpt>
<trkpt lat="46.24643001" lon="7.01226465"><ele>479.732696616</ele><time>2008-10-01T18:44:00Z</time></trkpt>
</trkseg></trk></gpx>